Wetterdaten: aktuell Sonntag, 05.04.2020 15:40
Datum Zeit Temp. -10cm Temp. 5cm Temp. 2m Feuchte 2m Luftdruck Regen Wind Richtung Richtung Taupunkt Windchill Windben
05.04.2020 15:40 9,8 C 21,3 C 19,1 C 34 % 1026,4 hPa 0,0 l/m 11,1 km/h (2 Bft) O-NO 67 2,9 C 19,1 C 20,8 km/h (4 Bft)
05.04.2020 15:38 9,8 C 21,7 C 19,2 C 34 % 1026,4 hPa 0,0 l/m 10,4 km/h (2 Bft) O-NO 67 3,0 C 19,2 C 5,3 km/h (1 Bft)
05.04.2020 15:36 9,7 C 21,8 C 19,2 C 34 % 1026,4 hPa 0,0 l/m 10,6 km/h (2 Bft) O-NO 67 3,0 C 19,2 C 9,7 km/h (2 Bft)
05.04.2020 15:34 9,7 C 21,2 C 19,1 C 34 % 1026,4 hPa 0,0 l/m 10,1 km/h (2 Bft) O-NO 67 2,9 C 19,1 C 20,3 km/h (4 Bft)
05.04.2020 15:32 9,7 C 21,1 C 19,3 C 34 % 1026,4 hPa 0,0 l/m 9,7 km/h (2 Bft) O-NO 67 3,0 C 19,3 C 15,2 km/h (3 Bft)
05.04.2020 15:30 9,7 C 21,3 C 19,1 C 34 % 1026,4 hPa 0,0 l/m 10,1 km/h (2 Bft) O 90 2,9 C 19,1 C 9,2 km/h (2 Bft)
05.04.2020 15:28 9,7 C 22,2 C 19,2 C 34 % 1026,4 hPa 0,0 l/m 10,1 km/h (2 Bft) O 90 3,0 C 19,2 C 5,3 km/h (1 Bft)
05.04.2020 15:26 9,7 C 22,3 C 19,1 C 34 % 1026,4 hPa 0,0 l/m 10,6 km/h (2 Bft) NO 45 2,9 C 19,1 C 14,2 km/h (3 Bft)
05.04.2020 15:24 9,6 C 22,5 C 19,0 C 34 % 1026,4 hPa 0,0 l/m 11,1 km/h (2 Bft) O-NO 67 2,8 C 19,0 C 9,9 km/h (2 Bft)
05.04.2020 15:22 9,6 C 22,0 C 18,8 C 34 % 1026,6 hPa 0,0 l/m 11,6 km/h (2 Bft) O-NO 67 2,6 C 18,8 C 15,4 km/h (3 Bft)
05.04.2020 15:20 9,6 C 21,8 C 18,6 C 34 % 1026,6 hPa 0,0 l/m 10,9 km/h (2 Bft) O-NO 67 2,4 C 18,6 C 19,6 km/h (3 Bft)
05.04.2020 15:18 9,6 C 21,4 C 18,6 C 34 % 1026,6 hPa 0,0 l/m 10,4 km/h (2 Bft) NW 315 2,4 C 18,6 C 11,1 km/h (2 Bft)
05.04.2020 15:16 9,6 C 21,8 C 18,8 C 34 % 1026,6 hPa 0,0 l/m 10,9 km/h (2 Bft) NO 45 2,6 C 18,8 C 10,1 km/h (2 Bft)
05.04.2020 15:14 9,5 C 21,9 C 18,8 C 34 % 1026,6 hPa 0,0 l/m 10,4 km/h (2 Bft) N-NO 22 2,6 C 18,8 C 10,4 km/h (2 Bft)
05.04.2020 15:12 9,5 C 22,3 C 18,8 C 35 % 1026,6 hPa 0,0 l/m 10,6 km/h (2 Bft) O-SO 112 3,0 C 18,8 C 10,6 km/h (2 Bft)
05.04.2020 15:10 9,5 C 22,4 C 19,0 C 34 % 1026,6 hPa 0,0 l/m 10,4 km/h (2 Bft) O 90 2,8 C 19,0 C 11,8 km/h (2 Bft)
05.04.2020 15:08 9,5 C 22,5 C 18,9 C 35 % 1026,6 hPa 0,0 l/m 10,9 km/h (2 Bft) O-SO 112 3,1 C 18,9 C 14,0 km/h (3 Bft)
05.04.2020 15:06 9,5 C 22,5 C 18,7 C 34 % 1026,6 hPa 0,0 l/m 10,9 km/h (2 Bft) O 90 2,5 C 18,7 C 25,8 km/h (4 Bft)
05.04.2020 15:04 9,3 C 22,0 C 18,5 C 34 % 1026,6 hPa 0,0 l/m 11,6 km/h (2 Bft) O-NO 67 2,3 C 18,5 C 9,7 km/h (2 Bft)
05.04.2020 15:02 9,3 C 21,8 C 18,5 C 34 % 1026,8 hPa 0,0 l/m 11,6 km/h (2 Bft) O-NO 67 2,3 C 18,5 C 22,7 km/h (4 Bft)
05.04.2020 15:00 9,3 C 21,5 C 18,7 C 35 % 1026,8 hPa 0,0 l/m 11,3 km/h (2 Bft) SO 135 2,9 C 18,7 C 14,7 km/h (3 Bft)
05.04.2020 14:58 9,3 C 21,4 C 18,6 C 35 % 1026,8 hPa 0,0 l/m 11,8 km/h (2 Bft) O-NO 67 2,8 C 18,6 C 15,9 km/h (3 Bft)
05.04.2020 14:56 9,3 C 21,4 C 18,5 C 35 % 1026,8 hPa 0,0 l/m 11,1 km/h (2 Bft) O-SO 112 2,8 C 18,5 C 15,9 km/h (3 Bft)
05.04.2020 14:54 9,3 C 21,5 C 18,6 C 35 % 1026,8 hPa 0,0 l/m 10,4 km/h (2 Bft) O 90 2,8 C 18,6 C 19,8 km/h (3 Bft)
05.04.2020 14:52 9,2 C 21,0 C 18,7 C 35 % 1026,8 hPa 0,0 l/m 10,6 km/h (2 Bft) NO 45 2,9 C 18,7 C 14,0 km/h (3 Bft)
05.04.2020 14:50 9,2 C 21,2 C 18,8 C 35 % 1026,8 hPa 0,0 l/m 10,1 km/h (2 Bft) O-NO 67 3,0 C 18,8 C 11,6 km/h (2 Bft)
05.04.2020 14:48 9,2 C 21,7 C 18,8 C 35 % 1026,8 hPa 0,0 l/m 9,9 km/h (2 Bft) O-NO 67 3,0 C 18,8 C 17,9 km/h (3 Bft)
05.04.2020 14:46 9,2 C 21,6 C 18,7 C 35 % 1026,8 hPa 0,0 l/m 9,4 km/h (2 Bft) NO 45 2,9 C 18,7 C 15,0 km/h (3 Bft)
05.04.2020 14:44 9,2 C 21,2 C 18,5 C 35 % 1026,8 hPa 0,0 l/m 8,9 km/h (2 Bft) O-NO 67 2,8 C 18,5 C 13,5 km/h (3 Bft)
05.04.2020 14:42 9,1 C 21,0 C 18,7 C 35 % 1027,0 hPa 0,0 l/m 9,4 km/h (2 Bft) NO 45 2,9 C 18,7 C 13,3 km/h (3 Bft)
05.04.2020 14:40 9,1 C 20,4 C 18,5 C 35 % 1027,0 hPa 0,0 l/m 9,2 km/h (2 Bft) NO 45 2,8 C 18,5 C 11,8 km/h (2 Bft)
05.04.2020 14:38 9,1 C 20,0 C 18,7 C 35 % 1027,0 hPa 0,0 l/m 9,4 km/h (2 Bft) N-NO 22 2,9 C 18,7 C 9,4 km/h (2 Bft)
05.04.2020 14:36 9,1 C 20,6 C 18,8 C 35 % 1027,0 hPa 0,0 l/m 10,1 km/h (2 Bft) O-NO 67 3,0 C 18,8 C 9,2 km/h (2 Bft)
05.04.2020 14:34 9,0 C 20,2 C 18,7 C 35 % 1027,0 hPa 0,0 l/m 9,7 km/h (2 Bft) NO 45 2,9 C 18,7 C 10,4 km/h (2 Bft)
05.04.2020 14:32 9,0 C 20,0 C 18,5 C 35 % 1027,0 hPa 0,0 l/m 9,9 km/h (2 Bft) O-NO 67 2,8 C 18,5 C 16,7 km/h (3 Bft)
05.04.2020 14:30 9,0 C 19,5 C 18,5 C 35 % 1027,0 hPa 0,0 l/m 10,4 km/h (2 Bft) O-NO 67 2,8 C 18,5 C 12,1 km/h (2 Bft)
05.04.2020 14:28 9,0 C 19,4 C 18,7 C 35 % 1027,0 hPa 0,0 l/m 10,6 km/h (2 Bft) W-NW 292 2,9 C 18,7 C 14,5 km/h (3 Bft)
05.04.2020 14:26 9,0 C 19,1 C 18,5 C 35 % 1027,0 hPa 0,0 l/m 10,4 km/h (2 Bft) N-NO 22 2,8 C 18,5 C 24,1 km/h (4 Bft)
05.04.2020 14:24 8,9 C 18,6 C 18,3 C 35 % 1027,0 hPa 0,0 l/m 10,6 km/h (2 Bft) N-NO 22 2,6 C 18,3 C 6,3 km/h (2 Bft)
05.04.2020 14:22 8,9 C 18,5 C 18,4 C 35 % 1027,1 hPa 0,0 l/m 10,6 km/h (2 Bft) N-NO 22 2,7 C 18,4 C 10,1 km/h (2 Bft)
05.04.2020 14:20 8,9 C 18,6 C 18,5 C 35 % 1027,1 hPa 0,0 l/m 10,9 km/h (2 Bft) SO 135 2,8 C 18,5 C 19,1 km/h (3 Bft)
05.04.2020 14:18 8,9 C 18,9 C 18,5 C 35 % 1027,1 hPa 0,0 l/m 10,9 km/h (2 Bft) O 90 2,8 C 18,5 C 15,7 km/h (3 Bft)
05.04.2020 14:16 8,8 C 18,4 C 18,4 C 35 % 1027,1 hPa 0,0 l/m 10,4 km/h (2 Bft) O-NO 67 2,7 C 18,4 C 8,4 km/h (2 Bft)
05.04.2020 14:14 8,8 C 18,6 C 18,5 C 36 % 1027,1 hPa 0,0 l/m 10,6 km/h (2 Bft) O-SO 112 3,2 C 18,5 C 8,7 km/h (2 Bft)
05.04.2020 14:12 8,8 C 18,6 C 18,7 C 36 % 1027,1 hPa 0,0 l/m 10,6 km/h (2 Bft) O 90 3,3 C 18,7 C 15,4 km/h (3 Bft)
05.04.2020 14:10 8,8 C 18,5 C 18,6 C 36 % 1027,1 hPa 0,0 l/m 10,9 km/h (2 Bft) O-NO 67 3,2 C 18,6 C 16,7 km/h (3 Bft)
05.04.2020 14:08 8,7 C 18,4 C 18,5 C 36 % 1027,1 hPa 0,0 l/m 10,9 km/h (2 Bft) O-NO 67 3,2 C 18,5 C 16,9 km/h (3 Bft)
05.04.2020 14:06 8,7 C 18,4 C 18,4 C 36 % 1027,1 hPa 0,0 l/m 9,7 km/h (2 Bft) O-NO 67 3,1 C 18,4 C 14,0 km/h (3 Bft)
05.04.2020 14:04 8,7 C 18,7 C 18,4 C 36 % 1027,1 hPa 0,0 l/m 9,4 km/h (2 Bft) NO 45 3,1 C 18,4 C 11,6 km/h (2 Bft)
05.04.2020 14:02 8,7 C 18,6 C 18,5 C 36 % 1027,3 hPa 0,0 l/m 9,7 km/h (2 Bft) N 360 3,2 C 18,5 C 7,7 km/h (2 Bft)
05.04.2020 14:00 8,6 C 18,5 C 18,4 C 36 % 1027,3 hPa 0,0 l/m 9,4 km/h (2 Bft) O-NO 67 3,1 C 18,4 C 14,5 km/h (3 Bft)
05.04.2020 13:58 8,6 C 18,6 C 18,4 C 36 % 1027,3 hPa 0,0 l/m 9,4 km/h (2 Bft) O-NO 67 3,1 C 18,4 C 6,8 km/h (2 Bft)
05.04.2020 13:56 8,6 C 18,4 C 18,4 C 36 % 1027,3 hPa 0,0 l/m 10,9 km/h (2 Bft) O-NO 67 3,1 C 18,4 C 16,4 km/h (3 Bft)
05.04.2020 13:54 8,5 C 18,1 C 18,2 C 36 % 1027,3 hPa 0,0 l/m 10,9 km/h (2 Bft) N-NO 22 2,9 C 18,2 C 7,0 km/h (2 Bft)
05.04.2020 13:52 8,5 C 17,8 C 18,1 C 36 % 1027,3 hPa 0,0 l/m 10,6 km/h (2 Bft) O-SO 112 2,8 C 18,1 C 12,8 km/h (3 Bft)
05.04.2020 13:50 8,5 C 17,7 C 17,9 C 36 % 1027,3 hPa 0,0 l/m 10,6 km/h (2 Bft) NO 45 2,6 C 17,9 C 6,5 km/h (2 Bft)
05.04.2020 13:48 8,4 C 17,8 C 18,1 C 37 % 1027,3 hPa 0,0 l/m 11,6 km/h (2 Bft) O-NO 67 3,2 C 18,1 C 20,0 km/h (4 Bft)
05.04.2020 13:46 8,4 C 17,9 C 18,2 C 37 % 1027,3 hPa 0,0 l/m 10,6 km/h (2 Bft) O-NO 67 3,3 C 18,2 C 22,0 km/h (4 Bft)
05.04.2020 13:44 8,4 C 18,1 C 18,1 C 37 % 1027,3 hPa 0,0 l/m 10,1 km/h (2 Bft) NW 315 3,2 C 18,1 C 13,5 km/h (3 Bft)
05.04.2020 13:42 8,4 C 17,9 C 18,0 C 37 % 1027,8 hPa 0,0 l/m 10,4 km/h (2 Bft) O-NO 67 3,1 C 18,0 C 9,4 km/h (2 Bft)
05.04.2020 13:40 8,3 C 18,0 C 18,1 C 37 % 1027,8 hPa 0,0 l/m 10,1 km/h (2 Bft) O-NO 67 3,2 C 18,1 C 11,8 km/h (2 Bft)
05.04.2020 13:38 8,3 C 17,9 C 18,1 C 37 % 1027,8 hPa 0,0 l/m 10,1 km/h (2 Bft) O-SO 112 3,2 C 18,1 C 18,8 km/h (3 Bft)
05.04.2020 13:36 8,3 C 18,0 C 18,1 C 37 % 1027,8 hPa 0,0 l/m 9,4 km/h (2 Bft) NO 45 3,2 C 18,1 C 14,2 km/h (3 Bft)
05.04.2020 13:34 8,2 C 18,2 C 18,2 C 37 % 1027,8 hPa 0,0 l/m 9,2 km/h (2 Bft) O-NO 67 3,3 C 18,2 C 13,3 km/h (3 Bft)
05.04.2020 13:32 8,2 C 18,1 C 18,1 C 37 % 1027,8 hPa 0,0 l/m 9,7 km/h (2 Bft) O-NO 67 3,2 C 18,1 C 15,9 km/h (3 Bft)
05.04.2020 13:30 8,2 C 18,1 C 18,1 C 37 % 1027,8 hPa 0,0 l/m 9,4 km/h (2 Bft) NO 45 3,2 C 18,1 C 10,4 km/h (2 Bft)
05.04.2020 13:28 8,1 C 17,7 C 17,9 C 37 % 1027,8 hPa 0,0 l/m 9,4 km/h (2 Bft) O-NO 67 3,0 C 17,9 C 15,9 km/h (3 Bft)
05.04.2020 13:26 8,1 C 17,6 C 17,8 C 37 % 1027,8 hPa 0,0 l/m 9,4 km/h (2 Bft) NO 45 2,9 C 17,8 C 10,9 km/h (2 Bft)
05.04.2020 13:24 8,1 C 17,7 C 17,8 C 39 % 1027,8 hPa 0,0 l/m 9,9 km/h (2 Bft) O-NO 67 3,7 C 17,8 C 8,4 km/h (2 Bft)
05.04.2020 13:22 8,1 C 17,3 C 17,6 C 37 % 1027,8 hPa 0,0 l/m 9,9 km/h (2 Bft) N-NO 22 2,7 C 17,6 C 9,2 km/h (2 Bft)
05.04.2020 13:20 8,0 C 17,4 C 17,7 C 39 % 1027,8 hPa 0,0 l/m 10,4 km/h (2 Bft) O-NO 67 3,6 C 17,7 C 9,9 km/h (2 Bft)
05.04.2020 13:18 8,0 C 17,5 C 17,7 C 39 % 1027,8 hPa 0,0 l/m 11,6 km/h (2 Bft) O-NO 67 3,6 C 17,7 C 16,7 km/h (3 Bft)
05.04.2020 13:16 8,0 C 17,4 C 17,7 C 39 % 1027,8 hPa 0,0 l/m 12,1 km/h (2 Bft) NO 45 3,6 C 17,7 C 21,5 km/h (4 Bft)
05.04.2020 13:14 7,9 C 17,5 C 17,7 C 39 % 1027,8 hPa 0,0 l/m 12,6 km/h (3 Bft) O-NO 67 3,6 C 17,7 C 7,5 km/h (2 Bft)
05.04.2020 13:12 7,9 C 17,2 C 17,7 C 39 % 1027,8 hPa 0,0 l/m 13,0 km/h (3 Bft) NO 45 3,6 C 17,7 C 14,7 km/h (3 Bft)
05.04.2020 13:10 7,9 C 17,1 C 17,6 C 39 % 1027,8 hPa 0,0 l/m 12,8 km/h (3 Bft) NO 45 3,5 C 17,6 C 15,9 km/h (3 Bft)
05.04.2020 13:08 7,8 C 17,1 C 17,5 C 39 % 1027,8 hPa 0,0 l/m 12,6 km/h (3 Bft) O-NO 67 3,4 C 17,5 C 16,7 km/h (3 Bft)
05.04.2020 13:06 7,8 C 17,2 C 17,6 C 39 % 1027,8 hPa 0,0 l/m 11,8 km/h (2 Bft) N-NO 22 3,5 C 17,6 C 20,5 km/h (4 Bft)
05.04.2020 13:04 7,8 C 17,1 C 17,4 C 40 % 1027,8 hPa 0,0 l/m 11,1 km/h (2 Bft) O-SO 112 3,7 C 17,4 C 13,5 km/h (3 Bft)
05.04.2020 13:02 7,8 C 17,0 C 17,5 C 40 % 1028,0 hPa 0,0 l/m 10,4 km/h (2 Bft) O-NO 67 3,8 C 17,5 C 14,2 km/h (3 Bft)
05.04.2020 13:00 7,7 C 17,1 C 17,5 C 40 % 1028,0 hPa 0,0 l/m 9,9 km/h (2 Bft) O-NO 67 3,8 C 17,5 C 9,4 km/h (2 Bft)
05.04.2020 12:58 7,7 C 16,6 C 17,3 C 40 % 1028,0 hPa 0,0 l/m 9,4 km/h (2 Bft) O-NO 67 3,6 C 17,3 C 18,6 km/h (3 Bft)
05.04.2020 12:56 7,7 C 16,6 C 17,4 C 40 % 1028,0 hPa 0,0 l/m 8,7 km/h (2 Bft) O-SO 112 3,7 C 17,4 C 15,0 km/h (3 Bft)
05.04.2020 12:54 7,6 C 17,1 C 17,7 C 41 % 1028,0 hPa 0,0 l/m 8,0 km/h (2 Bft) O-NO 67 4,3 C 17,7 C 13,3 km/h (3 Bft)
05.04.2020 12:52 7,6 C 17,3 C 17,5 C 41 % 1028,0 hPa 0,0 l/m 7,5 km/h (2 Bft) O-NO 67 4,1 C 17,5 C 18,6 km/h (3 Bft)
05.04.2020 12:50 7,6 C 17,0 C 17,6 C 41 % 1028,0 hPa 0,0 l/m 7,2 km/h (2 Bft) NO 45 4,2 C 17,6 C 10,1 km/h (2 Bft)
05.04.2020 12:48 7,6 C 17,1 C 17,6 C 41 % 1028,0 hPa 0,0 l/m 7,0 km/h (2 Bft) O-NO 67 4,2 C 17,6 C 8,2 km/h (2 Bft)
05.04.2020 12:46 7,5 C 17,1 C 17,4 C 41 % 1028,0 hPa 0,0 l/m 5,8 km/h (2 Bft) SO 135 4,0 C 17,4 C 7,0 km/h (2 Bft)
05.04.2020 12:44 7,5 C 16,9 C 17,4 C 42 % 1028,0 hPa 0,0 l/m 6,3 km/h (2 Bft) O-NO 67 4,4 C 17,4 C 16,7 km/h (3 Bft)
05.04.2020 12:42 7,5 C 16,7 C 17,2 C 42 % 1028,6 hPa 0,0 l/m 6,3 km/h (2 Bft) O-NO 67 4,2 C 17,2 C 10,1 km/h (2 Bft)
05.04.2020 12:40 7,5 C 16,6 C 17,1 C 42 % 1028,6 hPa 0,0 l/m 6,5 km/h (2 Bft) O-NO 67 4,1 C 17,1 C 11,6 km/h (2 Bft)
05.04.2020 12:38 7,4 C 16,6 C 17,0 C 42 % 1028,6 hPa 0,0 l/m 6,8 km/h (2 Bft) N-NO 22 4,0 C 17,0 C 8,9 km/h (2 Bft)
05.04.2020 12:36 7,4 C 16,3 C 16,9 C 42 % 1028,6 hPa 0,0 l/m 7,5 km/h (2 Bft) NW 315 3,9 C 16,9 C 4,3 km/h (1 Bft)
05.04.2020 12:34 7,4 C 16,0 C 16,7 C 42 % 1028,6 hPa 0,0 l/m 7,2 km/h (2 Bft) N-NO 22 3,7 C 16,7 C 10,6 km/h (2 Bft)
05.04.2020 12:32 7,4 C 16,0 C 16,5 C 42 % 1028,6 hPa 0,0 l/m 7,2 km/h (2 Bft) NO 45 3,5 C 16,5 C 9,7 km/h (2 Bft)
05.04.2020 12:30 7,3 C 16,1 C 16,6 C 43 % 1028,6 hPa 0,0 l/m 7,0 km/h (2 Bft) N-NO 22 4,0 C 16,6 C 9,2 km/h (2 Bft)
05.04.2020 12:28 7,3 C 16,1 C 16,7 C 43 % 1028,6 hPa 0,0 l/m 6,3 km/h (2 Bft) O-NO 67 4,1 C 16,7 C 14,5 km/h (3 Bft)
05.04.2020 12:26 7,3 C 16,2 C 16,5 C 43 % 1028,6 hPa 0,0 l/m 6,0 km/h (2 Bft) NO 45 3,9 C 16,5 C 18,8 km/h (3 Bft)
05.04.2020 12:24 7,3 C 15,7 C 16,2 C 43 % 1028,6 hPa 0,0 l/m 6,0 km/h (2 Bft) O-SO 112 3,6 C 16,2 C 8,7 km/h (2 Bft)
05.04.2020 12:22 7,3 C 15,5 C 16,1 C 43 % 1029,2 hPa 0,0 l/m 6,3 km/h (2 Bft) NO 45 3,5 C 16,1 C 8,4 km/h (2 Bft)
05.04.2020 12:20 7,2 C 15,5 C 16,3 C 43 % 1029,2 hPa 0,0 l/m 6,3 km/h (2 Bft) NO 45 3,7 C 16,3 C 8,4 km/h (2 Bft)
05.04.2020 12:18 7,2 C 15,3 C 16,1 C 43 % 1029,2 hPa 0,0 l/m 6,0 km/h (2 Bft) O-SO 112 3,5 C 16,1 C 18,8 km/h (3 Bft)
05.04.2020 12:16 7,2 C 15,3 C 16,0 C 43 % 1029,2 hPa 0,0 l/m 6,3 km/h (2 Bft) NO 45 3,4 C 16,0 C 8,7 km/h (2 Bft)
05.04.2020 12:14 7,2 C 15,3 C 15,9 C 45 % 1029,2 hPa 0,0 l/m 6,0 km/h (2 Bft) SO 135 4,0 C 15,9 C 4,8 km/h (1 Bft)
05.04.2020 12:12 7,2 C 15,1 C 15,8 C 45 % 1029,2 hPa 0,0 l/m 7,2 km/h (2 Bft) N-NO 22 3,9 C 15,8 C 14,0 km/h (3 Bft)
05.04.2020 12:10 7,1 C 14,0 C 14,8 C 46 % 1029,2 hPa 0,0 l/m 7,2 km/h (2 Bft) N-NO 22 3,3 C 14,8 C 14,0 km/h (3 Bft)
05.04.2020 12:08 7,1 C 14,0 C 14,8 C 46 % 1029,2 hPa 0,0 l/m 7,2 km/h (2 Bft) N-NO 22 3,3 C 14,8 C 14,0 km/h (3 Bft)
05.04.2020 12:06 7,1 C 14,0 C 14,8 C 46 % 1029,2 hPa 0,0 l/m 7,2 km/h (2 Bft) N-NO 22 3,3 C 14,8 C 14,0 km/h (3 Bft)
05.04.2020 12:04 7,1 C 14,0 C 14,8 C 46 % 1029,2 hPa 0,0 l/m 7,2 km/h (2 Bft) N-NO 22 3,3 C 14,8 C 14,0 km/h (3 Bft)
05.04.2020 12:02 7,1 C 14,0 C 14,8 C 46 % 1029,4 hPa 0,0 l/m 7,0 km/h (2 Bft) O-SO 112 3,3 C 14,8 C 9,9 km/h (2 Bft)
05.04.2020 12:00 7,1 C 13,8 C 15,0 C 46 % 1029,4 hPa 0,0 l/m 7,5 km/h (2 Bft) N-NO 22 3,5 C 15,0 C 4,1 km/h (1 Bft)
05.04.2020 11:58 7,1 C 14,3 C 15,2 C 46 % 1029,4 hPa 0,0 l/m 7,5 km/h (2 Bft) O-NO 67 3,7 C 15,2 C 12,8 km/h (3 Bft)
05.04.2020 11:56 7,1 C 14,1 C 15,1 C 46 % 1029,4 hPa 0,0 l/m 7,2 km/h (2 Bft) W-NW 292 3,6 C 15,1 C 7,2 km/h (2 Bft)
05.04.2020 11:54 7,0 C 13,6 C 14,9 C 47 % 1029,4 hPa 0,0 l/m 7,2 km/h (2 Bft) N-NO 22 3,7 C 14,9 C 5,3 km/h (1 Bft)
05.04.2020 11:52 7,0 C 13,4 C 15,0 C 47 % 1029,4 hPa 0,0 l/m 6,5 km/h (2 Bft) O-NO 67 3,8 C 15,0 C 7,5 km/h (2 Bft)
05.04.2020 11:50 7,0 C 13,1 C 14,8 C 47 % 1029,4 hPa 0,0 l/m 6,0 km/h (2 Bft) O-NO 67 3,6 C 14,8 C 12,3 km/h (3 Bft)
05.04.2020 11:48 7,0 C 13,1 C 14,7 C 47 % 1029,4 hPa 0,0 l/m 5,6 km/h (1 Bft) N-NO 22 3,5 C 14,7 C 10,1 km/h (2 Bft)
05.04.2020 11:46 7,0 C 12,9 C 14,6 C 47 % 1029,4 hPa 0,0 l/m 5,8 km/h (2 Bft) NO 45 3,4 C 14,6 C 6,3 km/h (2 Bft)
05.04.2020 11:44 7,0 C 12,8 C 14,4 C 48 % 1029,4 hPa 0,0 l/m 6,0 km/h (2 Bft) O-SO 112 3,5 C 14,4 C 9,4 km/h (2 Bft)
05.04.2020 11:42 7,0 C 12,3 C 14,0 C 47 % 1029,9 hPa 0,0 l/m 6,8 km/h (2 Bft) W-SW 247 2,9 C 14,0 C 4,8 km/h (1 Bft)
05.04.2020 11:40 7,0 C 12,5 C 13,9 C 48 % 1029,9 hPa 0,0 l/m 7,0 km/h (2 Bft) NO 45 3,1 C 13,9 C 5,8 km/h (2 Bft)
05.04.2020 11:38 6,9 C 12,3 C 13,8 C 48 % 1029,9 hPa 0,0 l/m 6,5 km/h (2 Bft) N-NW 337 3,0 C 13,8 C 6,3 km/h (2 Bft)
05.04.2020 11:36 6,9 C 11,9 C 13,8 C 48 % 1029,9 hPa 0,0 l/m 6,5 km/h (2 Bft) NO 45 3,0 C 13,8 C 8,2 km/h (2 Bft)
05.04.2020 11:34 6,9 C 11,8 C 13,4 C 48 % 1029,9 hPa 0,0 l/m 6,0 km/h (2 Bft) N 360 2,6 C 13,4 C 10,9 km/h (2 Bft)
05.04.2020 11:32 6,9 C 11,9 C 13,6 C 49 % 1029,9 hPa 0,0 l/m 5,8 km/h (2 Bft) NO 45 3,1 C 13,6 C 9,7 km/h (2 Bft)
05.04.2020 11:30 6,9 C 11,7 C 13,9 C 49 % 1029,9 hPa 0,0 l/m 5,8 km/h (2 Bft) N-NO 22 3,4 C 13,9 C 9,2 km/h (2 Bft)
05.04.2020 11:28 6,9 C 11,5 C 13,6 C 49 % 1029,9 hPa 0,0 l/m 5,3 km/h (1 Bft) N-NW 337 3,1 C 13,6 C 6,5 km/h (2 Bft)
05.04.2020 11:26 6,9 C 11,6 C 13,6 C 49 % 1029,9 hPa 0,0 l/m 5,1 km/h (1 Bft) N 360 3,1 C 13,6 C 15,4 km/h (3 Bft)
05.04.2020 11:24 6,9 C 11,5 C 13,5 C 50 % 1029,9 hPa 0,0 l/m 5,6 km/h (1 Bft) NO 45 3,3 C 13,5 C 5,6 km/h (1 Bft)
05.04.2020 11:22 6,9 C 11,3 C 13,2 C 50 % 1029,9 hPa 0,0 l/m 5,8 km/h (2 Bft) NO 45 3,0 C 13,2 C 8,7 km/h (2 Bft)
05.04.2020 11:20 6,9 C 11,5 C 13,1 C 50 % 1029,9 hPa 0,0 l/m 6,0 km/h (2 Bft) NO 45 2,9 C 13,1 C 4,6 km/h (1 Bft)
05.04.2020 11:18 6,9 C 11,3 C 13,5 C 50 % 1029,9 hPa 0,0 l/m 7,0 km/h (2 Bft) N-NO 22 3,3 C 13,5 C 9,4 km/h (2 Bft)
05.04.2020 11:16 6,8 C 11,1 C 13,3 C 51 % 1029,9 hPa 0,0 l/m 6,5 km/h (2 Bft) W 270 3,4 C 13,3 C 0,0 km/h (0 Bft)
05.04.2020 11:14 6,8 C 11,1 C 13,0 C 51 % 1029,9 hPa 0,0 l/m 6,3 km/h (2 Bft) O-NO 67 3,1 C 13,0 C 11,6 km/h (2 Bft)
05.04.2020 11:12 6,8 C 10,9 C 13,2 C 51 % 1029,9 hPa 0,0 l/m 5,6 km/h (1 Bft) NO 45 3,3 C 13,2 C 3,1 km/h (1 Bft)
05.04.2020 11:10 6,8 C 11,0 C 13,2 C 51 % 1029,9 hPa 0,0 l/m 5,6 km/h (1 Bft) N-NO 22 3,3 C 13,2 C 11,6 km/h (2 Bft)
05.04.2020 11:08 6,8 C 11,0 C 12,9 C 52 % 1029,9 hPa 0,0 l/m 5,1 km/h (1 Bft) N-NO 22 3,3 C 12,9 C 9,7 km/h (2 Bft)
05.04.2020 11:06 6,8 C 11,3 C 12,9 C 52 % 1029,9 hPa 0,0 l/m 4,6 km/h (1 Bft) O-NO 67 3,3 C 12,9 C 5,3 km/h (1 Bft)
05.04.2020 11:04 6,8 C 10,7 C 12,8 C 52 % 1029,9 hPa 0,0 l/m 4,8 km/h (1 Bft) O 90 3,2 C 12,8 C 5,8 km/h (2 Bft)
05.04.2020 11:02 6,8 C 10,5 C 12,6 C 52 % 1030,2 hPa 0,0 l/m 5,6 km/h (1 Bft) W-NW 292 3,0 C 12,6 C 5,1 km/h (1 Bft)
05.04.2020 11:00 6,8 C 10,3 C 12,6 C 55 % 1030,2 hPa 0,0 l/m 5,8 km/h (2 Bft) O-SO 112 3,8 C 12,6 C 13,3 km/h (3 Bft)
05.04.2020 10:58 6,8 C 10,4 C 12,5 C 55 % 1030,2 hPa 0,0 l/m 5,6 km/h (1 Bft) O-NO 67 3,7 C 12,5 C 4,8 km/h (1 Bft)
05.04.2020 10:56 6,8 C 10,3 C 12,3 C 55 % 1030,2 hPa 0,0 l/m 5,8 km/h (2 Bft) NO 45 3,5 C 12,3 C 5,8 km/h (2 Bft)
05.04.2020 10:54 6,8 C 10,2 C 12,1 C 55 % 1030,2 hPa 0,0 l/m 6,3 km/h (2 Bft) O-NO 67 3,3 C 12,1 C 4,6 km/h (1 Bft)
05.04.2020 10:52 6,8 C 10,3 C 11,5 C 55 % 1030,2 hPa 0,0 l/m 6,0 km/h (2 Bft) O-NO 67 2,8 C 11,5 C 7,2 km/h (2 Bft)
05.04.2020 10:50 6,8 C 10,1 C 11,6 C 56 % 1030,2 hPa 0,0 l/m 5,3 km/h (1 Bft) N 360 3,1 C 11,6 C 7,0 km/h (2 Bft)
05.04.2020 10:48 6,7 C 9,8 C 11,5 C 56 % 1030,2 hPa 0,0 l/m 4,8 km/h (1 Bft) NO 45 3,0 C 11,5 C 3,9 km/h (1 Bft)
05.04.2020 10:46 6,7 C 9,5 C 11,4 C 56 % 1030,2 hPa 0,0 l/m 5,3 km/h (1 Bft) NO 45 2,9 C 11,4 C 8,0 km/h (2 Bft)
05.04.2020 10:44 6,8 C 9,7 C 11,3 C 56 % 1030,2 hPa 0,0 l/m 4,6 km/h (1 Bft) O-SO 112 2,8 C 11,3 C 12,6 km/h (3 Bft)
05.04.2020 10:42 6,8 C 9,8 C 11,6 C 57 % 1030,1 hPa 0,0 l/m 4,3 km/h (1 Bft) O-NO 67 3,4 C 11,6 C 6,0 km/h (2 Bft)
05.04.2020 10:40 6,8 C 9,2 C 11,5 C 57 % 1030,1 hPa 0,0 l/m 4,3 km/h (1 Bft) O-NO 67 3,3 C 11,5 C 4,8 km/h (1 Bft)
05.04.2020 10:38 6,8 C 9,0 C 11,1 C 57 % 1030,1 hPa 0,0 l/m 4,3 km/h (1 Bft) N-NO 22 2,9 C 11,1 C 7,5 km/h (2 Bft)
05.04.2020 10:36 6,8 C 8,8 C 11,1 C 57 % 1030,1 hPa 0,0 l/m 3,6 km/h (1 Bft) N-NO 22 2,9 C 11,1 C 8,4 km/h (2 Bft)
05.04.2020 10:34 6,8 C 9,0 C 10,9 C 58 % 1030,1 hPa 0,0 l/m 4,1 km/h (1 Bft) N-NO 22 3,0 C 10,9 C 3,1 km/h (1 Bft)
05.04.2020 10:32 6,8 C 8,8 C 10,8 C 58 % 1030,1 hPa 0,0 l/m 4,3 km/h (1 Bft) N-NO 22 2,9 C 10,8 C 15,0 km/h (3 Bft)
05.04.2020 10:30 6,8 C 8,8 C 10,8 C 58 % 1030,1 hPa 0,0 l/m 4,6 km/h (1 Bft) O-NO 67 2,9 C 10,8 C 6,5 km/h (2 Bft)
05.04.2020 10:28 6,8 C 8,5 C 10,8 C 58 % 1030,1 hPa 0,0 l/m 5,1 km/h (1 Bft) N 360 2,9 C 10,8 C 7,0 km/h (2 Bft)
05.04.2020 10:26 6,8 C 8,2 C 10,7 C 59 % 1030,1 hPa 0,0 l/m 5,6 km/h (1 Bft) O-SO 112 3,0 C 10,7 C 2,9 km/h (1 Bft)
05.04.2020 10:24 6,8 C 8,0 C 10,5 C 59 % 1030,1 hPa 0,0 l/m 5,8 km/h (2 Bft) N-NO 22 2,8 C 10,5 C 10,6 km/h (2 Bft)
05.04.2020 10:22 6,8 C 8,3 C 10,1 C 59 % 1030,1 hPa 0,0 l/m 5,6 km/h (1 Bft) N 360 2,5 C 10,1 C 9,7 km/h (2 Bft)
05.04.2020 10:20 6,8 C 8,0 C 9,9 C 59 % 1030,1 hPa 0,0 l/m 5,6 km/h (1 Bft) NO 45 2,3 C 9,5 C 6,3 km/h (2 Bft)
05.04.2020 10:18 6,8 C 7,8 C 9,9 C 59 % 1030,1 hPa 0,0 l/m 5,3 km/h (1 Bft) O-NO 67 2,3 C 9,6 C 8,4 km/h (2 Bft)
05.04.2020 10:16 6,8 C 7,7 C 10,0 C 60 % 1030,1 hPa 0,0 l/m 5,1 km/h (1 Bft) N-NO 22 2,6 C 9,7 C 5,6 km/h (1 Bft)
05.04.2020 10:14 6,8 C 7,5 C 9,8 C 60 % 1030,1 hPa 0,0 l/m 5,3 km/h (1 Bft) O-NO 67 2,4 C 9,4 C 6,5 km/h (2 Bft)
05.04.2020 10:12 6,8 C 7,6 C 9,8 C 60 % 1030,1 hPa 0,0 l/m 5,6 km/h (1 Bft) O-NO 67 2,4 C 9,4 C 4,8 km/h (1 Bft)
05.04.2020 10:10 6,8 C 7,5 C 9,9 C 61 % 1030,1 hPa 0,0 l/m 5,8 km/h (2 Bft) SO 135 2,7 C 9,4 C 7,2 km/h (2 Bft)
05.04.2020 10:08 6,7 C 7,4 C 9,8 C 61 % 1030,1 hPa 0,0 l/m 6,3 km/h (2 Bft) NO 45 2,6 C 9,2 C 4,6 km/h (1 Bft)
05.04.2020 10:06 6,7 C 7,6 C 9,5 C 61 % 1030,1 hPa 0,0 l/m 6,3 km/h (2 Bft) N-NO 22 2,4 C 8,8 C 15,2 km/h (3 Bft)
05.04.2020 10:04 6,7 C 7,4 C 9,5 C 62 % 1030,1 hPa 0,0 l/m 5,3 km/h (1 Bft) NO 45 2,6 C 9,1 C 7,5 km/h (2 Bft)
05.04.2020 10:02 6,7 C 7,0 C 9,2 C 62 % 1030,0 hPa 0,0 l/m 5,3 km/h (1 Bft) O-NO 67 2,3 C 8,8 C 8,7 km/h (2 Bft)
05.04.2020 10:00 6,7 C 7,2 C 8,9 C 62 % 1030,0 hPa 0,0 l/m 4,8 km/h (1 Bft) N 360 2,0 C 8,6 C 6,8 km/h (2 Bft)
05.04.2020 09:58 6,7 C 7,0 C 8,8 C 62 % 1030,0 hPa 0,0 l/m 4,3 km/h (1 Bft) O-NO 67 1,9 C 8,8 C 5,6 km/h (1 Bft)
05.04.2020 09:56 6,7 C 6,7 C 9,1 C 63 % 1030,0 hPa 0,0 l/m 4,3 km/h (1 Bft) O-NO 67 2,4 C 9,1 C 6,5 km/h (2 Bft)
05.04.2020 09:54 6,7 C 6,5 C 8,8 C 63 % 1030,0 hPa 0,0 l/m 4,8 km/h (1 Bft) O-NO 67 2,2 C 8,5 C 5,3 km/h (1 Bft)
05.04.2020 09:52 6,7 C 6,4 C 8,7 C 63 % 1030,0 hPa 0,0 l/m 4,8 km/h (1 Bft) O-NO 67 2,1 C 8,3 C 7,5 km/h (2 Bft)
05.04.2020 09:50 6,7 C 6,3 C 8,4 C 63 % 1030,0 hPa 0,0 l/m 4,6 km/h (1 Bft) N-NO 22 1,8 C 8,1 C 5,8 km/h (2 Bft)
05.04.2020 09:48 6,7 C 6,2 C 8,3 C 64 % 1030,0 hPa 0,0 l/m 4,3 km/h (1 Bft) N-NO 22 1,9 C 8,3 C 5,8 km/h (2 Bft)
05.04.2020 09:46 6,7 C 6,1 C 8,4 C 64 % 1030,0 hPa 0,0 l/m 4,3 km/h (1 Bft) N-NO 22 2,0 C 8,4 C 14,0 km/h (3 Bft)
05.04.2020 09:44 6,7 C 6,2 C 8,1 C 64 % 1030,0 hPa 0,0 l/m 3,9 km/h (1 Bft) N-NW 337 1,7 C 8,1 C 0,0 km/h (0 Bft)
05.04.2020 09:42 6,7 C 6,3 C 7,9 C 65 % 1029,9 hPa 0,0 l/m 3,9 km/h (1 Bft) N-NW 337 1,7 C 7,9 C 11,8 km/h (2 Bft)
05.04.2020 09:40 6,7 C 6,0 C 7,9 C 66 % 1029,9 hPa 0,0 l/m 4,1 km/h (1 Bft) O-NO 67 1,9 C 7,9 C 7,7 km/h (2 Bft)
05.04.2020 09:38 6,7 C 5,7 C 7,8 C 66 % 1029,9 hPa 0,0 l/m 4,1 km/h (1 Bft) NW 315 1,9 C 7,8 C 7,5 km/h (2 Bft)
05.04.2020 09:36 6,7 C 5,8 C 7,4 C 66 % 1029,9 hPa 0,0 l/m 4,1 km/h (1 Bft) O-NO 67 1,5 C 7,4 C 10,1 km/h (2 Bft)
05.04.2020 09:34 6,8 C 5,6 C 7,3 C 67 % 1029,9 hPa 0,0 l/m 4,3 km/h (1 Bft) SO 135 1,6 C 7,3 C 3,6 km/h (1 Bft)
05.04.2020 09:32 6,8 C 5,6 C 7,1 C 67 % 1029,9 hPa 0,0 l/m 4,1 km/h (1 Bft) O-SO 112 1,4 C 7,1 C 5,1 km/h (1 Bft)
05.04.2020 09:30 6,8 C 5,6 C 6,8 C 68 % 1029,9 hPa 0,0 l/m 4,1 km/h (1 Bft) O-NO 67 1,3 C 6,8 C 7,2 km/h (2 Bft)
05.04.2020 09:28 6,8 C 5,6 C 6,6 C 68 % 1029,9 hPa 0,0 l/m 4,1 km/h (1 Bft) NO 45 1,1 C 6,6 C 6,3 km/h (2 Bft)
05.04.2020 09:26 6,8 C 5,4 C 6,2 C 68 % 1029,9 hPa 0,0 l/m 3,9 km/h (1 Bft) S-SO 157 0,7 C 6,2 C 3,4 km/h (1 Bft)
05.04.2020 09:24 6,8 C 5,2 C 5,6 C 70 % 1029,9 hPa 0,0 l/m 3,6 km/h (1 Bft) N-NO 22 0,6 C 5,6 C 6,8 km/h (2 Bft)
05.04.2020 09:22 6,8 C 5,0 C 4,9 C 71 % 1029,8 hPa 0,0 l/m 3,4 km/h (1 Bft) N-NO 22 0,1 C 4,9 C 3,9 km/h (1 Bft)
05.04.2020 09:20 6,8 C 5,0 C 4,7 C 71 % 1029,8 hPa 0,0 l/m 3,6 km/h (1 Bft) NO 45 -0,1 C 4,7 C 5,1 km/h (1 Bft)
05.04.2020 09:18 6,8 C 4,9 C 4,5 C 71 % 1029,8 hPa 0,0 l/m 3,4 km/h (1 Bft) O-SO 112 -0,3 C 4,5 C 2,7 km/h (1 Bft)
05.04.2020 09:16 6,8 C 4,7 C 4,3 C 71 % 1029,8 hPa 0,0 l/m 3,4 km/h (1 Bft) NO 45 -0,5 C 4,3 C 8,9 km/h (2 Bft)
05.04.2020 09:14 6,8 C 4,8 C 4,1 C 72 % 1029,8 hPa 0,0 l/m 3,4 km/h (1 Bft) O-NO 67 -0,5 C 4,1 C 3,1 km/h (1 Bft)
05.04.2020 09:12 6,8 C 4,6 C 4,1 C 72 % 1029,8 hPa 0,0 l/m 3,6 km/h (1 Bft) O-NO 67 -0,5 C 4,1 C 4,3 km/h (1 Bft)
05.04.2020 09:10 6,8 C 4,6 C 3,9 C 72 % 1029,8 hPa 0,0 l/m 3,9 km/h (1 Bft) O-NO 67 -0,7 C 3,9 C 6,0 km/h (2 Bft)
05.04.2020 09:08 6,8 C 4,6 C 3,7 C 73 % 1029,8 hPa 0,0 l/m 3,6 km/h (1 Bft) O-NO 67 -0,7 C 3,7 C 4,1 km/h (1 Bft)
05.04.2020 09:06 6,8 C 4,5 C 3,7 C 73 % 1029,8 hPa 0,0 l/m 3,6 km/h (1 Bft) O-NO 67 -0,7 C 3,7 C 7,2 km/h (2 Bft)
05.04.2020 09:04 6,8 C 4,1 C 3,5 C 73 % 1029,8 hPa 0,0 l/m 3,1 km/h (1 Bft) O-SO 112 -0,9 C 3,5 C 4,1 km/h (1 Bft)
05.04.2020 09:02 6,8 C 4,1 C 3,2 C 73 % 1029,8 hPa 0,0 l/m 2,9 km/h (1 Bft) N-NO 22 -1,2 C 3,2 C 4,1 km/h (1 Bft)
05.04.2020 09:00 6,8 C 4,1 C 3,1 C 74 % 1029,8 hPa 0,0 l/m 2,9 km/h (1 Bft) O 90 -1,1 C 3,1 C 7,2 km/h (2 Bft)
05.04.2020 08:58 6,8 C 3,9 C 2,9 C 74 % 1029,8 hPa 0,0 l/m 2,4 km/h (1 Bft) W-SW 247 -1,3 C 2,9 C 5,1 km/h (1 Bft)
05.04.2020 08:56 6,8 C 3,8 C 2,8 C 74 % 1029,8 hPa 0,0 l/m 2,2 km/h (1 Bft) NO 45 -1,4 C 2,8 C 3,9 km/h (1 Bft)
05.04.2020 08:54 6,8 C 3,8 C 2,7 C 75 % 1029,8 hPa 0,0 l/m 1,9 km/h (1 Bft) NO 45 -1,3 C 2,7 C 4,6 km/h (1 Bft)
05.04.2020 08:52 6,8 C 3,6 C 2,6 C 75 % 1029,8 hPa 0,0 l/m 2,2 km/h (1 Bft) O 90 -1,4 C 2,6 C 2,4 km/h (1 Bft)
05.04.2020 08:50 6,9 C 3,6 C 2,3 C 75 % 1029,8 hPa 0,0 l/m 2,2 km/h (1 Bft) O 90 -1,7 C 2,3 C 3,9 km/h (1 Bft)
05.04.2020 08:48 6,9 C 3,6 C 2,2 C 76 % 1029,8 hPa 0,0 l/m 1,7 km/h (1 Bft) N-NO 22 -1,6 C 2,2 C 2,9 km/h (1 Bft)
05.04.2020 08:46 6,9 C 3,5 C 2,1 C 75 % 1029,8 hPa 0,0 l/m 1,4 km/h (1 Bft) O-NO 67 -1,9 C 2,1 C 3,1 km/h (1 Bft)
05.04.2020 08:44 6,9 C 3,6 C 2,0 C 75 % 1029,8 hPa 0,0 l/m 1,9 km/h (1 Bft) O-NO 67 -2,0 C 2,0 C 3,9 km/h (1 Bft)
05.04.2020 08:42 6,9 C 3,5 C 1,7 C 75 % 1029,3 hPa 0,0 l/m 1,4 km/h (1 Bft) O-NO 67 -2,2 C 1,7 C 4,1 km/h (1 Bft)
05.04.2020 08:40 6,9 C 2,9 C 1,6 C 75 % 1029,3 hPa 0,0 l/m 1,4 km/h (1 Bft) W 270 -2,3 C 1,6 C 2,4 km/h (1 Bft)
05.04.2020 08:38 6,9 C 2,9 C 1,5 C 75 % 1029,3 hPa 0,0 l/m 1,7 km/h (1 Bft) O-NO 67 -2,4 C 1,5 C 0,0 km/h (0 Bft)
05.04.2020 08:36 6,9 C 2,8 C 1,5 C 75 % 1029,3 hPa 0,0 l/m 2,2 km/h (1 Bft) N-NO 22 -2,4 C 1,5 C 7,0 km/h (2 Bft)
05.04.2020 08:34 6,9 C 2,5 C 1,4 C 75 % 1029,3 hPa 0,0 l/m 1,9 km/h (1 Bft) O-NO 67 -2,5 C 1,4 C 6,5 km/h (2 Bft)
05.04.2020 08:32 6,9 C 2,3 C 1,2 C 75 % 1029,3 hPa 0,0 l/m 2,2 km/h (1 Bft) O-NO 67 -2,7 C 1,2 C 0,0 km/h (0 Bft)
05.04.2020 08:30 6,9 C 2,4 C 1,1 C 74 % 1029,3 hPa 0,0 l/m 1,9 km/h (1 Bft) NO 45 -3,0 C 1,1 C 3,1 km/h (1 Bft)
05.04.2020 08:28 6,9 C 2,3 C 1,1 C 74 % 1029,3 hPa 0,0 l/m 1,9 km/h (1 Bft) N-NO 22 -3,0 C 1,1 C 4,1 km/h (1 Bft)
05.04.2020 08:26 6,9 C 1,9 C 0,8 C 75 % 1029,3 hPa 0,0 l/m 2,2 km/h (1 Bft) NO 45 -3,1 C 0,8 C 5,8 km/h (2 Bft)
05.04.2020 08:24 6,9 C 1,7 C 0,8 C 75 % 1029,3 hPa 0,0 l/m 1,9 km/h (1 Bft) O-NO 67 -3,1 C 0,8 C 0,0 km/h (0 Bft)
05.04.2020 08:22 6,9 C 1,7 C 0,7 C 74 % 1029,1 hPa 0,0 l/m 2,2 km/h (1 Bft) O-SO 112 -3,4 C 0,7 C 5,8 km/h (2 Bft)
05.04.2020 08:20 6,9 C 1,6 C 0,6 C 74 % 1029,1 hPa 0,0 l/m 1,9 km/h (1 Bft) O 90 -3,5 C 0,6 C 0,0 km/h (0 Bft)
05.04.2020 08:18 6,9 C 1,6 C 0,6 C 74 % 1029,1 hPa 0,0 l/m 1,7 km/h (1 Bft) O 90 -3,5 C 0,6 C 3,9 km/h (1 Bft)
05.04.2020 08:16 6,9 C 1,5 C 0,5 C 74 % 1029,1 hPa 0,0 l/m 1,0 km/h (0 Bft) O 90 -3,6 C 0,5 C 4,6 km/h (1 Bft)
05.04.2020 08:14 6,9 C 1,2 C 0,2 C 74 % 1029,1 hPa 0,0 l/m 0,7 km/h (0 Bft) O 90 -3,9 C 0,2 C 2,4 km/h (1 Bft)
05.04.2020 08:12 7,0 C 1,0 C 0,1 C 74 % 1029,1 hPa 0,0 l/m 0,5 km/h (0 Bft) O-SO 112 -4,0 C 0,1 C 3,6 km/h (1 Bft)
05.04.2020 08:10 7,0 C 1,1 C 0,0 C 74 % 1029,1 hPa 0,0 l/m 0,2 km/h (0 Bft) O-SO 112 -4,1 C 0,0 C 0,0 km/h (0 Bft)
05.04.2020 08:08 7,0 C 0,9 C 0,0 C 74 % 1029,1 hPa 0,0 l/m 0,2 km/h (0 Bft) O-SO 112 -4,1 C 0,0 C 0,0 km/h (0 Bft)
05.04.2020 08:06 7,0 C 0,9 C -0,1 C 74 % 1029,1 hPa 0,0 l/m 0,2 km/h (0 Bft) O-NO 67 -4,2 C -0,1 C 0,0 km/h (0 Bft)
05.04.2020 08:04 7,0 C 0,5 C -0,2 C 73 % 1029,1 hPa 0,0 l/m 0,2 km/h (0 Bft) O-NO 67 -4,4 C -0,2 C 0,0 km/h (0 Bft)
05.04.2020 08:02 7,0 C 0,4 C -0,2 C 73 % 1028,7 hPa 0,0 l/m 0,2 km/h (0 Bft) O-NO 67 -4,4 C -0,2 C 0,0 km/h (0 Bft)
05.04.2020 08:00 7,0 C 0,3 C -0,2 C 73 % 1028,7 hPa 0,0 l/m 0,2 km/h (0 Bft) N-NW 337 -4,4 C -0,2 C 0,0 km/h (0 Bft)
05.04.2020 07:58 7,0 C 0,3 C -0,4 C 73 % 1028,7 hPa 0,0 l/m 0,2 km/h (0 Bft) N-NW 337 -4,6 C -0,4 C 0,0 km/h (0 Bft)
05.04.2020 07:56 7,0 C 0,3 C -0,5 C 73 % 1028,7 hPa 0,0 l/m 0,2 km/h (0 Bft) N-NW 337 -4,7 C -0,5 C 0,0 km/h (0 Bft)
05.04.2020 07:54 7,0 C 0,0 C -0,6 C 73 % 1028,7 hPa 0,0 l/m 0,0 km/h (0 Bft) O-NO 67 -4,8 C -0,6 C 2,7 km/h (1 Bft)
05.04.2020 07:52 7,0 C -0,1 C -0,9 C 73 % 1028,7 hPa 0,0 l/m 0,0 km/h (0 Bft) O-NO 67 -5,1 C -0,9 C 0,0 km/h (0 Bft)
05.04.2020 07:50 7,0 C -0,3 C -1,0 C 73 % 1028,7 hPa 0,0 l/m 0,0 km/h (0 Bft) N-NO 22 -5,2 C -1,0 C 0,0 km/h (0 Bft)
05.04.2020 07:48 7,0 C -0,4 C -1,2 C 72 % 1028,7 hPa 0,0 l/m 0,0 km/h (0 Bft) N-NO 22 -5,6 C -1,2 C 0,0 km/h (0 Bft)
05.04.2020 07:46 7,0 C -0,9 C -1,3 C 72 % 1028,7 hPa 0,0 l/m 0,0 km/h (0 Bft) SO 135 -5,7 C -1,3 C 0,0 km/h (0 Bft)
05.04.2020 07:44 7,0 C -0,9 C -1,4 C 72 % 1028,7 hPa 0,0 l/m 0,0 km/h (0 Bft) SO 135 -5,8 C -1,4 C 0,0 km/h (0 Bft)
05.04.2020 07:42 7,0 C -1,0 C -1,4 C 72 % 1028,0 hPa 0,0 l/m 0,0 km/h (0 Bft) SO 135 -5,8 C -1,4 C 0,0 km/h (0 Bft)
05.04.2020 07:40 7,0 C -1,2 C -1,6 C 72 % 1028,0 hPa 0,0 l/m 0,0 km/h (0 Bft) SO 135 -6,0 C -1,6 C 0,0 km/h (0 Bft)
05.04.2020 07:38 7,0 C -1,3 C -1,7 C 71 % 1028,0 hPa 0,0 l/m 0,0 km/h (0 Bft) SO 135 -6,2 C -1,7 C 0,0 km/h (0 Bft)
05.04.2020 07:36 7,0 C -1,3 C -1,8 C 71 % 1028,0 hPa 0,0 l/m 0,0 km/h (0 Bft) SO 135 -6,3 C -1,8 C 0,0 km/h (0 Bft)
05.04.2020 07:34 7,0 C -1,4 C -2,0 C 71 % 1028,0 hPa 0,0 l/m 0,0 km/h (0 Bft) SO 135 -6,5 C -2,0 C 0,0 km/h (0 Bft)
05.04.2020 07:32 7,1 C -1,4 C -2,0 C 71 % 1028,0 hPa 0,0 l/m 0,0 km/h (0 Bft) SO 135 -6,5 C -2,0 C 0,0 km/h (0 Bft)
05.04.2020 07:30 7,1 C -1,5 C -2,0 C 71 % 1028,0 hPa 0,0 l/m 0,0 km/h (0 Bft) SO 135 -6,5 C -2,0 C 0,0 km/h (0 Bft)
05.04.2020 07:28 7,1 C -1,7 C -2,0 C 71 % 1028,0 hPa 0,0 l/m 0,0 km/h (0 Bft) SO 135 -6,5 C -2,0 C 0,0 km/h (0 Bft)
05.04.2020 07:26 7,1 C -1,9 C -2,0 C 71 % 1028,0 hPa 0,0 l/m 0,0 km/h (0 Bft) SO 135 -6,5 C -2,0 C 0,0 km/h (0 Bft)
05.04.2020 07:24 7,1 C -2,0 C -2,1 C 71 % 1028,0 hPa 0,0 l/m 0,0 km/h (0 Bft) SO 135 -6,6 C -2,1 C 0,0 km/h (0 Bft)
05.04.2020 07:22 7,1 C -2,2 C -2,1 C 71 % 1027,9 hPa 0,0 l/m 0,0 km/h (0 Bft) SO 135 -6,6 C -2,1 C 0,0 km/h (0 Bft)
05.04.2020 07:20 7,1 C -2,2 C -2,3 C 70 % 1027,9 hPa 0,0 l/m 0,0 km/h (0 Bft) SO 135 -7,0 C -2,3 C 0,0 km/h (0 Bft)
05.04.2020 07:18 7,1 C -1,9 C -2,3 C 70 % 1027,9 hPa 0,0 l/m 0,0 km/h (0 Bft) SO 135 -7,0 C -2,3 C 0,0 km/h (0 Bft)
05.04.2020 07:16 7,1 C -2,2 C -2,5 C 70 % 1027,9 hPa 0,0 l/m 0,0 km/h (0 Bft) SO 135 -7,2 C -2,5 C 0,0 km/h (0 Bft)
05.04.2020 07:14 7,1 C -2,4 C -2,5 C 70 % 1027,9 hPa 0,0 l/m 0,0 km/h (0 Bft) SO 135 -7,2 C -2,5 C 0,0 km/h (0 Bft)
05.04.2020 07:12 7,1 C -2,3 C -2,5 C 70 % 1027,9 hPa 0,0 l/m 0,0 km/h (0 Bft) SO 135 -7,2 C -2,5 C 0,0 km/h (0 Bft)
05.04.2020 07:10 7,1 C -2,6 C -2,6 C 70 % 1027,9 hPa 0,0 l/m 0,0 km/h (0 Bft) SO 135 -7,3 C -2,6 C 0,0 km/h (0 Bft)
05.04.2020 07:08 7,1 C -2,4 C -2,6 C 70 % 1027,9 hPa 0,0 l/m 0,0 km/h (0 Bft) SO 135 -7,3 C -2,6 C 0,0 km/h (0 Bft)
05.04.2020 07:06 7,1 C -2,2 C -2,6 C 70 % 1027,9 hPa 0,0 l/m 0,0 km/h (0 Bft) SO 135 -7,3 C -2,6 C 0,0 km/h (0 Bft)
05.04.2020 07:04 7,1 C -2,4 C -2,5 C 70 % 1027,9 hPa 0,0 l/m 0,0 km/h (0 Bft) SO 135 -7,2 C -2,5 C 0,0 km/h (0 Bft)
05.04.2020 07:02 7,1 C -2,2 C -2,6 C 70 % 1027,4 hPa 0,0 l/m 0,0 km/h (0 Bft) SO 135 -7,3 C -2,6 C 0,0 km/h (0 Bft)
05.04.2020 07:00 7,1 C -2,6 C -2,6 C 70 % 1027,4 hPa 0,0 l/m 0,0 km/h (0 Bft) SO 135 -7,3 C -2,6 C 0,0 km/h (0 Bft)
05.04.2020 06:58 7,2 C -2,9 C -2,6 C 70 % 1027,4 hPa 0,0 l/m 0,0 km/h (0 Bft) SO 135 -7,3 C -2,6 C 0,0 km/h (0 Bft)
05.04.2020 06:56 7,2 C -3,1 C -2,6 C 70 % 1027,4 hPa 0,0 l/m 0,0 km/h (0 Bft) SO 135 -7,3 C -2,6 C 0,0 km/h (0 Bft)
05.04.2020 06:54 7,2 C -2,8 C -2,7 C 70 % 1027,4 hPa 0,0 l/m 0,0 km/h (0 Bft) SO 135 -7,4 C -2,7 C 0,0 km/h (0 Bft)
05.04.2020 06:52 7,2 C -2,3 C -2,7 C 70 % 1027,4 hPa 0,0 l/m 0,0 km/h (0 Bft) SO 135 -7,4 C -2,7 C 0,0 km/h (0 Bft)
05.04.2020 06:50 7,2 C -3,2 C -2,6 C 70 % 1027,4 hPa 0,0 l/m 0,0 km/h (0 Bft) SO 135 -7,3 C -2,6 C 0,0 km/h (0 Bft)
05.04.2020 06:48 7,2 C -3,3 C -2,5 C 70 % 1027,4 hPa 0,0 l/m 0,0 km/h (0 Bft) SO 135 -7,2 C -2,5 C 0,0 km/h (0 Bft)
05.04.2020 06:46 7,2 C -3,3 C -2,6 C 70 % 1027,4 hPa 0,0 l/m 0,0 km/h (0 Bft) SO 135 -7,3 C -2,6 C 0,0 km/h (0 Bft)
05.04.2020 06:44 7,2 C -3,3 C -2,6 C 70 % 1027,4 hPa 0,0 l/m 0,0 km/h (0 Bft) SO 135 -7,3 C -2,6 C 0,0 km/h (0 Bft)
05.04.2020 06:42 7,2 C -3,2 C -2,5 C 70 % 1027,4 hPa 0,0 l/m 0,0 km/h (0 Bft) SO 135 -7,2 C -2,5 C 0,0 km/h (0 Bft)
05.04.2020 06:40 7,2 C -3,3 C -2,5 C 70 % 1027,4 hPa 0,0 l/m 0,0 km/h (0 Bft) SO 135 -7,2 C -2,5 C 0,0 km/h (0 Bft)
05.04.2020 06:38 7,2 C -3,2 C -2,5 C 70 % 1027,4 hPa 0,0 l/m 0,0 km/h (0 Bft) SO 135 -7,2 C -2,5 C 0,0 km/h (0 Bft)
05.04.2020 06:36 7,2 C -3,3 C -2,6 C 70 % 1027,4 hPa 0,0 l/m 0,0 km/h (0 Bft) SO 135 -7,3 C -2,6 C 0,0 km/h (0 Bft)
05.04.2020 06:34 7,2 C -2,8 C -2,6 C 70 % 1027,4 hPa 0,0 l/m 0,0 km/h (0 Bft) SO 135 -7,3 C -2,6 C 0,0 km/h (0 Bft)
05.04.2020 06:32 7,2 C -3,2 C -2,6 C 70 % 1027,4 hPa 0,0 l/m 0,0 km/h (0 Bft) SO 135 -7,3 C -2,6 C 0,0 km/h (0 Bft)
05.04.2020 06:30 7,2 C -3,5 C -2,5 C 70 % 1027,4 hPa 0,0 l/m 0,0 km/h (0 Bft) SO 135 -7,2 C -2,5 C 0,0 km/h (0 Bft)
05.04.2020 06:28 7,2 C -3,5 C -2,5 C 70 % 1027,4 hPa 0,0 l/m 0,0 km/h (0 Bft) SO 135 -7,2 C -2,5 C 0,0 km/h (0 Bft)
05.04.2020 06:26 7,3 C -3,3 C -2,5 C 70 % 1027,4 hPa 0,0 l/m 0,0 km/h (0 Bft) SO 135 -7,2 C -2,5 C 0,0 km/h (0 Bft)
05.04.2020 06:24 7,3 C -3,5 C -2,4 C 70 % 1027,4 hPa 0,0 l/m 0,0 km/h (0 Bft) SO 135 -7,1 C -2,4 C 0,0 km/h (0 Bft)
05.04.2020 06:22 7,3 C -3,1 C -2,2 C 70 % 1027,4 hPa 0,0 l/m 0,0 km/h (0 Bft) SO 135 -6,9 C -2,2 C 0,0 km/h (0 Bft)
05.04.2020 06:20 7,3 C -3,1 C -2,2 C 70 % 1027,4 hPa 0,0 l/m 0,0 km/h (0 Bft) SO 135 -6,9 C -2,2 C 0,0 km/h (0 Bft)
05.04.2020 06:18 7,3 C -3,2 C -2,4 C 70 % 1027,4 hPa 0,0 l/m 0,0 km/h (0 Bft) SO 135 -7,1 C -2,4 C 0,0 km/h (0 Bft)
05.04.2020 06:16 7,3 C -3,5 C -2,4 C 70 % 1027,4 hPa 0,0 l/m 0,0 km/h (0 Bft) SO 135 -7,1 C -2,4 C 0,0 km/h (0 Bft)
05.04.2020 06:14 7,3 C -3,1 C -2,2 C 70 % 1027,4 hPa 0,0 l/m 0,0 km/h (0 Bft) SO 135 -6,9 C -2,2 C 0,0 km/h (0 Bft)
05.04.2020 06:12 7,3 C -3,1 C -2,1 C 70 % 1027,4 hPa 0,0 l/m 0,0 km/h (0 Bft) W 270 -6,8 C -2,1 C 0,0 km/h (0 Bft)
05.04.2020 06:10 7,3 C -3,3 C -2,4 C 70 % 1027,4 hPa 0,0 l/m 0,0 km/h (0 Bft) W 270 -7,1 C -2,4 C 0,0 km/h (0 Bft)
05.04.2020 06:08 7,3 C -3,3 C -2,4 C 70 % 1027,4 hPa 0,0 l/m 0,0 km/h (0 Bft) W 270 -7,1 C -2,4 C 0,0 km/h (0 Bft)
05.04.2020 06:06 7,3 C -3,3 C -2,4 C 70 % 1027,4 hPa 0,0 l/m 0,0 km/h (0 Bft) W 270 -7,1 C -2,4 C 0,0 km/h (0 Bft)
05.04.2020 06:04 7,3 C -3,3 C -2,4 C 70 % 1027,4 hPa 0,0 l/m 0,0 km/h (0 Bft) W 270 -7,1 C -2,4 C 0,0 km/h (0 Bft)
05.04.2020 06:02 7,3 C -3,3 C -2,4 C 70 % 1027,3 hPa 0,0 l/m 0,0 km/h (0 Bft) W 270 -7,1 C -2,4 C 0,0 km/h (0 Bft)
05.04.2020 06:00 7,3 C -3,3 C -2,4 C 70 % 1027,3 hPa 0,0 l/m 0,0 km/h (0 Bft) W 270 -7,1 C -2,4 C 0,0 km/h (0 Bft)
05.04.2020 05:58 7,4 C -3,2 C -2,4 C 70 % 1027,3 hPa 0,0 l/m 0,0 km/h (0 Bft) W 270 -7,1 C -2,4 C 0,0 km/h (0 Bft)
05.04.2020 05:56 7,4 C -3,2 C -2,2 C 70 % 1027,3 hPa 0,0 l/m 0,0 km/h (0 Bft) W 270 -6,9 C -2,2 C 0,0 km/h (0 Bft)
05.04.2020 05:54 7,4 C -3,3 C -2,1 C 70 % 1027,3 hPa 0,0 l/m 0,0 km/h (0 Bft) W 270 -6,8 C -2,1 C 0,0 km/h (0 Bft)
05.04.2020 05:52 7,4 C -3,1 C -2,2 C 70 % 1027,3 hPa 0,0 l/m 0,0 km/h (0 Bft) W 270 -6,9 C -2,2 C 0,0 km/h (0 Bft)
05.04.2020 05:50 7,4 C -2,8 C -2,1 C 70 % 1027,3 hPa 0,0 l/m 0,0 km/h (0 Bft) W 270 -6,8 C -2,1 C 0,0 km/h (0 Bft)
05.04.2020 05:48 7,4 C -2,4 C -2,1 C 70 % 1027,3 hPa 0,0 l/m 0,0 km/h (0 Bft) W 270 -6,8 C -2,1 C 0,0 km/h (0 Bft)
05.04.2020 05:46 7,4 C -2,8 C -2,1 C 68 % 1027,3 hPa 0,0 l/m 0,0 km/h (0 Bft) W 270 -7,2 C -2,1 C 0,0 km/h (0 Bft)
05.04.2020 05:44 7,4 C -2,6 C -2,2 C 68 % 1027,3 hPa 0,0 l/m 0,0 km/h (0 Bft) W 270 -7,3 C -2,2 C 0,0 km/h (0 Bft)
05.04.2020 05:42 7,4 C -2,7 C -2,2 C 68 % 1027,1 hPa 0,0 l/m 0,0 km/h (0 Bft) W 270 -7,3 C -2,2 C 0,0 km/h (0 Bft)
05.04.2020 05:40 7,4 C -3,2 C -2,2 C 68 % 1027,1 hPa 0,0 l/m 0,0 km/h (0 Bft) W 270 -7,3 C -2,2 C 0,0 km/h (0 Bft)
05.04.2020 05:38 7,4 C -3,2 C -2,2 C 68 % 1027,1 hPa 0,0 l/m 0,0 km/h (0 Bft) W 270 -7,3 C -2,2 C 0,0 km/h (0 Bft)
05.04.2020 05:36 7,4 C -3,5 C -2,2 C 68 % 1027,1 hPa 0,0 l/m 0,0 km/h (0 Bft) W 270 -7,3 C -2,2 C 0,0 km/h (0 Bft)
05.04.2020 05:34 7,4 C -3,2 C -2,2 C 68 % 1027,1 hPa 0,0 l/m 0,0 km/h (0 Bft) W 270 -7,3 C -2,2 C 0,0 km/h (0 Bft)
05.04.2020 05:32 7,4 C -3,1 C -2,1 C 68 % 1027,1 hPa 0,0 l/m 0,0 km/h (0 Bft) W 270 -7,2 C -2,1 C 0,0 km/h (0 Bft)
05.04.2020 05:30 7,4 C -3,5 C -2,1 C 68 % 1027,1 hPa 0,0 l/m 0,0 km/h (0 Bft) W 270 -7,2 C -2,1 C 0,0 km/h (0 Bft)
05.04.2020 05:28 7,5 C -3,3 C -2,1 C 68 % 1027,1 hPa 0,0 l/m 0,0 km/h (0 Bft) W 270 -7,2 C -2,1 C 0,0 km/h (0 Bft)
05.04.2020 05:26 7,5 C -3,1 C -2,1 C 68 % 1027,1 hPa 0,0 l/m 0,0 km/h (0 Bft) W 270 -7,2 C -2,1 C 0,0 km/h (0 Bft)
05.04.2020 05:24 7,5 C -2,8 C -2,2 C 68 % 1027,1 hPa 0,0 l/m 0,0 km/h (0 Bft) W 270 -7,3 C -2,2 C 0,0 km/h (0 Bft)
05.04.2020 05:22 7,5 C -2,7 C -2,2 C 68 % 1027,2 hPa 0,0 l/m 0,0 km/h (0 Bft) W 270 -7,3 C -2,2 C 0,0 km/h (0 Bft)
05.04.2020 05:20 7,5 C -2,8 C -2,2 C 68 % 1027,2 hPa 0,0 l/m 0,0 km/h (0 Bft) W 270 -7,3 C -2,2 C 0,0 km/h (0 Bft)
05.04.2020 05:18 7,5 C -3,1 C -2,1 C 68 % 1027,2 hPa 0,0 l/m 0,0 km/h (0 Bft) W 270 -7,2 C -2,1 C 0,0 km/h (0 Bft)
05.04.2020 05:16 7,5 C -3,2 C -2,0 C 68 % 1027,2 hPa 0,0 l/m 0,0 km/h (0 Bft) W 270 -7,1 C -2,0 C 0,0 km/h (0 Bft)
05.04.2020 05:14 7,5 C -3,1 C -2,1 C 68 % 1027,2 hPa 0,0 l/m 0,0 km/h (0 Bft) W 270 -7,2 C -2,1 C 0,0 km/h (0 Bft)
05.04.2020 05:12 7,5 C -3,3 C -2,1 C 68 % 1027,2 hPa 0,0 l/m 0,0 km/h (0 Bft) W 270 -7,2 C -2,1 C 0,0 km/h (0 Bft)
05.04.2020 05:10 7,5 C -2,9 C -2,1 C 68 % 1027,2 hPa 0,0 l/m 0,0 km/h (0 Bft) W 270 -7,2 C -2,1 C 0,0 km/h (0 Bft)
05.04.2020 05:08 7,5 C -2,9 C -2,1 C 68 % 1027,2 hPa 0,0 l/m 0,0 km/h (0 Bft) W 270 -7,2 C -2,1 C 0,0 km/h (0 Bft)
05.04.2020 05:06 7,5 C -2,7 C -2,1 C 68 % 1027,2 hPa 0,0 l/m 0,0 km/h (0 Bft) W 270 -7,2 C -2,1 C 0,0 km/h (0 Bft)
05.04.2020 05:04 7,5 C -2,8 C -2,1 C 68 % 1027,2 hPa 0,0 l/m 0,0 km/h (0 Bft) W 270 -7,2 C -2,1 C 0,0 km/h (0 Bft)
05.04.2020 05:02 7,5 C -3,2 C -2,0 C 68 % 1027,3 hPa 0,0 l/m 0,0 km/h (0 Bft) W 270 -7,1 C -2,0 C 0,0 km/h (0 Bft)
05.04.2020 05:00 7,5 C -3,1 C -2,0 C 68 % 1027,3 hPa 0,0 l/m 0,0 km/h (0 Bft) W 270 -7,1 C -2,0 C 0,0 km/h (0 Bft)
05.04.2020 04:58 7,7 C -3,2 C -2,1 C 68 % 1027,3 hPa 0,0 l/m 0,0 km/h (0 Bft) W 270 -7,2 C -2,1 C 0,0 km/h (0 Bft)
05.04.2020 04:56 7,7 C -3,3 C -2,0 C 68 % 1027,3 hPa 0,0 l/m 0,0 km/h (0 Bft) W 270 -7,1 C -2,0 C 0,0 km/h (0 Bft)
05.04.2020 04:54 7,7 C -3,1 C -2,0 C 68 % 1027,3 hPa 0,0 l/m 0,0 km/h (0 Bft) W 270 -7,1 C -2,0 C 0,0 km/h (0 Bft)
05.04.2020 04:52 7,7 C -2,9 C -2,0 C 68 % 1027,3 hPa 0,0 l/m 0,0 km/h (0 Bft) W 270 -7,1 C -2,0 C 0,0 km/h (0 Bft)
05.04.2020 04:50 7,7 C -2,7 C -2,0 C 68 % 1027,3 hPa 0,0 l/m 0,0 km/h (0 Bft) W 270 -7,1 C -2,0 C 0,0 km/h (0 Bft)
05.04.2020 04:48 7,7 C -2,3 C -2,0 C 68 % 1027,3 hPa 0,0 l/m 0,0 km/h (0 Bft) W 270 -7,1 C -2,0 C 0,0 km/h (0 Bft)
05.04.2020 04:46 7,7 C -2,7 C -2,0 C 68 % 1027,3 hPa 0,0 l/m 0,0 km/h (0 Bft) W 270 -7,1 C -2,0 C 0,0 km/h (0 Bft)
05.04.2020 04:44 7,7 C -2,7 C -1,8 C 68 % 1027,3 hPa 0,0 l/m 0,0 km/h (0 Bft) W 270 -6,9 C -1,8 C 0,0 km/h (0 Bft)
05.04.2020 04:42 7,7 C -2,3 C -1,8 C 68 % 1027,2 hPa 0,0 l/m 0,0 km/h (0 Bft) W 270 -6,9 C -1,8 C 0,0 km/h (0 Bft)
05.04.2020 04:40 7,7 C -2,3 C -1,8 C 68 % 1027,2 hPa 0,0 l/m 0,0 km/h (0 Bft) W 270 -6,9 C -1,8 C 0,0 km/h (0 Bft)
05.04.2020 04:38 7,7 C -2,6 C -1,8 C 68 % 1027,2 hPa 0,0 l/m 0,0 km/h (0 Bft) W 270 -6,9 C -1,8 C 0,0 km/h (0 Bft)
05.04.2020 04:36 7,7 C -2,3 C -1,8 C 67 % 1027,2 hPa 0,0 l/m 0,0 km/h (0 Bft) W 270 -7,1 C -1,8 C 0,0 km/h (0 Bft)
05.04.2020 04:34 7,7 C -2,7 C -2,0 C 67 % 1027,2 hPa 0,0 l/m 0,0 km/h (0 Bft) W 270 -7,3 C -2,0 C 0,0 km/h (0 Bft)
05.04.2020 04:32 7,8 C -2,6 C -1,8 C 67 % 1027,2 hPa 0,0 l/m 0,0 km/h (0 Bft) W 270 -7,1 C -1,8 C 0,0 km/h (0 Bft)
05.04.2020 04:30 7,8 C -2,7 C -1,8 C 67 % 1027,2 hPa 0,0 l/m 0,0 km/h (0 Bft) W 270 -7,1 C -1,8 C 0,0 km/h (0 Bft)
05.04.2020 04:28 7,8 C -2,8 C -1,8 C 67 % 1027,2 hPa 0,0 l/m 0,0 km/h (0 Bft) W 270 -7,1 C -1,8 C 0,0 km/h (0 Bft)
05.04.2020 04:26 7,8 C -2,8 C -1,7 C 67 % 1027,2 hPa 0,0 l/m 0,0 km/h (0 Bft) W 270 -7,0 C -1,7 C 0,0 km/h (0 Bft)
05.04.2020 04:24 7,8 C -2,7 C -1,8 C 67 % 1027,2 hPa 0,0 l/m 0,0 km/h (0 Bft) W 270 -7,1 C -1,8 C 0,0 km/h (0 Bft)
05.04.2020 04:22 7,8 C -2,3 C -1,8 C 67 % 1027,0 hPa 0,0 l/m 0,0 km/h (0 Bft) W 270 -7,1 C -1,8 C 0,0 km/h (0 Bft)
05.04.2020 04:20 7,8 C -2,6 C -1,8 C 67 % 1027,0 hPa 0,0 l/m 0,0 km/h (0 Bft) W 270 -7,1 C -1,8 C 0,0 km/h (0 Bft)
05.04.2020 04:18 7,8 C -2,6 C -1,8 C 67 % 1027,0 hPa 0,0 l/m 0,0 km/h (0 Bft) W 270 -7,1 C -1,8 C 0,0 km/h (0 Bft)
05.04.2020 04:16 7,8 C -2,7 C -1,7 C 67 % 1027,0 hPa 0,0 l/m 0,0 km/h (0 Bft) W 270 -7,0 C -1,7 C 0,0 km/h (0 Bft)
05.04.2020 04:14 7,8 C -2,6 C -1,7 C 67 % 1027,0 hPa 0,0 l/m 0,0 km/h (0 Bft) W 270 -7,0 C -1,7 C 0,0 km/h (0 Bft)
05.04.2020 04:12 7,8 C -2,2 C -1,6 C 67 % 1027,0 hPa 0,0 l/m 0,0 km/h (0 Bft) W 270 -6,9 C -1,6 C 0,0 km/h (0 Bft)
05.04.2020 04:10 7,8 C -2,7 C -1,6 C 67 % 1027,0 hPa 0,0 l/m 0,0 km/h (0 Bft) W 270 -6,9 C -1,6 C 0,0 km/h (0 Bft)
05.04.2020 04:08 7,8 C -2,5 C -1,7 C 67 % 1027,0 hPa 0,0 l/m 0,0 km/h (0 Bft) W 270 -7,0 C -1,7 C 0,0 km/h (0 Bft)
05.04.2020 04:06 7,8 C -2,8 C -1,7 C 67 % 1027,0 hPa 0,0 l/m 0,0 km/h (0 Bft) W 270 -7,0 C -1,7 C 0,0 km/h (0 Bft)
05.04.2020 04:04 7,9 C -2,6 C -1,8 C 67 % 1027,0 hPa 0,0 l/m 0,0 km/h (0 Bft) W 270 -7,1 C -1,8 C 0,0 km/h (0 Bft)
05.04.2020 04:02 7,9 C -2,3 C -1,8 C 67 % 1027,2 hPa 0,0 l/m 0,0 km/h (0 Bft) W 270 -7,1 C -1,8 C 0,0 km/h (0 Bft)
05.04.2020 04:00 7,9 C -2,7 C -1,8 C 67 % 1027,2 hPa 0,0 l/m 0,0 km/h (0 Bft) W 270 -7,1 C -1,8 C 0,0 km/h (0 Bft)
05.04.2020 03:58 7,9 C -2,7 C -1,8 C 67 % 1027,2 hPa 0,0 l/m 0,0 km/h (0 Bft) W 270 -7,1 C -1,8 C 0,0 km/h (0 Bft)
05.04.2020 03:56 7,9 C -2,7 C -1,7 C 67 % 1027,2 hPa 0,0 l/m 0,0 km/h (0 Bft) W 270 -7,0 C -1,7 C 0,0 km/h (0 Bft)
05.04.2020 03:54 7,9 C -2,6 C -1,7 C 67 % 1027,2 hPa 0,0 l/m 0,0 km/h (0 Bft) W 270 -7,0 C -1,7 C 0,0 km/h (0 Bft)
05.04.2020 03:52 7,9 C -2,5 C -1,7 C 67 % 1027,2 hPa 0,0 l/m 0,0 km/h (0 Bft) W 270 -7,0 C -1,7 C 0,0 km/h (0 Bft)
05.04.2020 03:50 7,9 C -2,5 C -1,7 C 67 % 1027,2 hPa 0,0 l/m 0,0 km/h (0 Bft) W 270 -7,0 C -1,7 C 0,0 km/h (0 Bft)
05.04.2020 03:48 7,9 C -2,5 C -1,7 C 67 % 1027,2 hPa 0,0 l/m 0,0 km/h (0 Bft) W 270 -7,0 C -1,7 C 0,0 km/h (0 Bft)
05.04.2020 03:46 7,9 C -2,7 C -1,7 C 67 % 1027,2 hPa 0,0 l/m 0,0 km/h (0 Bft) W 270 -7,0 C -1,7 C 0,0 km/h (0 Bft)
05.04.2020 03:44 7,9 C -2,6 C -1,6 C 67 % 1027,2 hPa 0,0 l/m 0,0 km/h (0 Bft) W 270 -6,9 C -1,6 C 0,0 km/h (0 Bft)
05.04.2020 03:42 7,9 C -2,5 C -1,4 C 66 % 1027,3 hPa 0,0 l/m 0,0 km/h (0 Bft) W 270 -6,9 C -1,4 C 0,0 km/h (0 Bft)
05.04.2020 03:40 7,9 C -2,7 C -1,3 C 66 % 1027,3 hPa 0,0 l/m 0,0 km/h (0 Bft) W 270 -6,8 C -1,3 C 0,0 km/h (0 Bft)
05.04.2020 03:38 8,0 C -2,7 C -1,4 C 66 % 1027,3 hPa 0,0 l/m 0,0 km/h (0 Bft) W 270 -6,9 C -1,4 C 0,0 km/h (0 Bft)
05.04.2020 03:36 8,0 C -3,0 C -1,6 C 66 % 1027,3 hPa 0,0 l/m 0,0 km/h (0 Bft) W 270 -7,1 C -1,6 C 0,0 km/h (0 Bft)
05.04.2020 03:34 8,0 C -2,8 C -1,6 C 66 % 1027,3 hPa 0,0 l/m 0,0 km/h (0 Bft) W 270 -7,1 C -1,6 C 0,0 km/h (0 Bft)
05.04.2020 03:32 8,0 C -2,8 C -1,6 C 66 % 1027,3 hPa 0,0 l/m 0,0 km/h (0 Bft) W 270 -7,1 C -1,6 C 0,0 km/h (0 Bft)
05.04.2020 03:30 8,0 C -2,7 C -1,4 C 66 % 1027,3 hPa 0,0 l/m 0,0 km/h (0 Bft) W 270 -6,9 C -1,4 C 0,0 km/h (0 Bft)
05.04.2020 03:28 8,0 C -2,5 C -1,4 C 66 % 1027,3 hPa 0,0 l/m 0,0 km/h (0 Bft) W 270 -6,9 C -1,4 C 0,0 km/h (0 Bft)
05.04.2020 03:26 8,0 C -2,3 C -1,4 C 66 % 1027,3 hPa 0,0 l/m 0,0 km/h (0 Bft) W 270 -6,9 C -1,4 C 0,0 km/h (0 Bft)
05.04.2020 03:24 7,9 C -2,5 C -1,4 C 66 % 1027,3 hPa 0,0 l/m 0,0 km/h (0 Bft) W 270 -6,9 C -1,4 C 0,0 km/h (0 Bft)
05.04.2020 03:22 7,9 C -2,6 C -1,4 C 66 % 1027,5 hPa 0,0 l/m 0,0 km/h (0 Bft) W 270 -6,9 C -1,4 C 0,0 km/h (0 Bft)
05.04.2020 03:20 7,9 C -2,6 C -1,3 C 66 % 1027,5 hPa 0,0 l/m 0,0 km/h (0 Bft) W 270 -6,8 C -1,3 C 0,0 km/h (0 Bft)
05.04.2020 03:18 7,9 C -2,7 C -1,3 C 66 % 1027,5 hPa 0,0 l/m 0,0 km/h (0 Bft) W 270 -6,8 C -1,3 C 0,0 km/h (0 Bft)
05.04.2020 03:16 7,9 C -2,8 C -1,2 C 66 % 1027,5 hPa 0,0 l/m 0,0 km/h (0 Bft) W 270 -6,7 C -1,2 C 0,0 km/h (0 Bft)
05.04.2020 03:14 7,9 C -2,7 C -1,3 C 66 % 1027,5 hPa 0,0 l/m 0,0 km/h (0 Bft) W 270 -6,8 C -1,3 C 0,0 km/h (0 Bft)
05.04.2020 03:12 7,9 C -2,7 C -1,3 C 66 % 1027,5 hPa 0,0 l/m 0,0 km/h (0 Bft) W 270 -6,8 C -1,3 C 0,0 km/h (0 Bft)
05.04.2020 03:10 8,1 C -2,2 C -1,0 C 66 % 1027,5 hPa 0,0 l/m 0,0 km/h (0 Bft) W 270 -6,5 C -1,0 C 0,0 km/h (0 Bft)
05.04.2020 03:08 8,1 C -2,2 C -1,0 C 66 % 1027,5 hPa 0,0 l/m 0,0 km/h (0 Bft) W 270 -6,5 C -1,0 C 0,0 km/h (0 Bft)
05.04.2020 03:06 8,1 C -2,2 C -1,0 C 66 % 1027,5 hPa 0,0 l/m 0,0 km/h (0 Bft) W 270 -6,5 C -1,0 C 0,0 km/h (0 Bft)
05.04.2020 03:04 8,1 C -2,2 C -1,0 C 66 % 1027,5 hPa 0,0 l/m 0,0 km/h (0 Bft) W 270 -6,5 C -1,0 C 0,0 km/h (0 Bft)
05.04.2020 03:02 8,1 C -2,2 C -1,0 C 66 % 1027,6 hPa 0,0 l/m 0,0 km/h (0 Bft) W 270 -6,5 C -1,0 C 0,0 km/h (0 Bft)
05.04.2020 03:00 8,1 C -2,2 C -1,0 C 66 % 1027,6 hPa 0,0 l/m 0,0 km/h (0 Bft) W 270 -6,5 C -1,0 C 0,0 km/h (0 Bft)
05.04.2020 02:58 8,1 C -2,0 C -1,0 C 66 % 1027,6 hPa 0,0 l/m 0,0 km/h (0 Bft) W 270 -6,5 C -1,0 C 0,0 km/h (0 Bft)
05.04.2020 02:56 8,1 C -1,8 C -0,9 C 66 % 1027,6 hPa 0,0 l/m 0,0 km/h (0 Bft) W 270 -6,4 C -0,9 C 0,0 km/h (0 Bft)
05.04.2020 02:54 8,1 C -1,4 C -0,9 C 66 % 1027,6 hPa 0,0 l/m 0,0 km/h (0 Bft) W 270 -6,4 C -0,9 C 0,0 km/h (0 Bft)
05.04.2020 02:52 8,1 C -1,8 C -0,9 C 66 % 1027,6 hPa 0,0 l/m 0,0 km/h (0 Bft) W 270 -6,4 C -0,9 C 0,0 km/h (0 Bft)
05.04.2020 02:50 8,1 C -1,7 C -0,9 C 66 % 1027,6 hPa 0,0 l/m 0,0 km/h (0 Bft) W 270 -6,4 C -0,9 C 0,0 km/h (0 Bft)
05.04.2020 02:48 8,1 C -2,2 C -0,9 C 66 % 1027,6 hPa 0,0 l/m 0,0 km/h (0 Bft) W 270 -6,4 C -0,9 C 0,0 km/h (0 Bft)
05.04.2020 02:46 8,2 C -2,0 C -0,9 C 66 % 1027,6 hPa 0,0 l/m 0,0 km/h (0 Bft) W 270 -6,4 C -0,9 C 0,0 km/h (0 Bft)
05.04.2020 02:44 8,2 C -1,8 C -0,8 C 66 % 1027,6 hPa 0,0 l/m 0,0 km/h (0 Bft) W 270 -6,3 C -0,8 C 0,0 km/h (0 Bft)
05.04.2020 02:42 8,2 C -2,1 C -0,8 C 65 % 1027,6 hPa 0,0 l/m 0,0 km/h (0 Bft) W 270 -6,5 C -0,8 C 0,0 km/h (0 Bft)
05.04.2020 02:40 8,2 C -2,1 C -0,8 C 65 % 1027,6 hPa 0,0 l/m 0,0 km/h (0 Bft) W 270 -6,5 C -0,8 C 0,0 km/h (0 Bft)
05.04.2020 02:38 8,2 C -2,2 C -0,9 C 65 % 1027,6 hPa 0,0 l/m 0,0 km/h (0 Bft) W 270 -6,6 C -0,9 C 0,0 km/h (0 Bft)
05.04.2020 02:36 8,2 C -2,1 C -0,9 C 65 % 1027,6 hPa 0,0 l/m 0,0 km/h (0 Bft) W 270 -6,6 C -0,9 C 0,0 km/h (0 Bft)
05.04.2020 02:34 8,2 C -2,1 C -0,8 C 65 % 1027,6 hPa 0,0 l/m 0,0 km/h (0 Bft) W 270 -6,5 C -0,8 C 0,0 km/h (0 Bft)
05.04.2020 02:32 8,2 C -2,2 C -0,8 C 65 % 1027,6 hPa 0,0 l/m 0,0 km/h (0 Bft) W 270 -6,5 C -0,8 C 0,0 km/h (0 Bft)
05.04.2020 02:30 8,2 C -2,0 C -0,7 C 65 % 1027,6 hPa 0,0 l/m 0,0 km/h (0 Bft) W 270 -6,4 C -0,7 C 0,0 km/h (0 Bft)
05.04.2020 02:28 8,2 C -2,2 C -0,7 C 65 % 1027,6 hPa 0,0 l/m 0,0 km/h (0 Bft) W 270 -6,4 C -0,7 C 0,0 km/h (0 Bft)
05.04.2020 02:26 8,2 C -2,1 C -0,7 C 65 % 1027,6 hPa 0,0 l/m 0,0 km/h (0 Bft) W 270 -6,4 C -0,7 C 0,0 km/h (0 Bft)
05.04.2020 02:24 8,2 C -2,1 C -0,7 C 65 % 1027,6 hPa 0,0 l/m 0,0 km/h (0 Bft) W 270 -6,4 C -0,7 C 0,0 km/h (0 Bft)
05.04.2020 02:22 8,2 C -2,1 C -0,5 C 65 % 1027,6 hPa 0,0 l/m 0,0 km/h (0 Bft) W 270 -6,3 C -0,5 C 0,0 km/h (0 Bft)
05.04.2020 02:20 8,2 C -2,1 C -0,5 C 65 % 1027,6 hPa 0,0 l/m 0,0 km/h (0 Bft) W 270 -6,3 C -0,5 C 0,0 km/h (0 Bft)
05.04.2020 02:18 8,3 C -2,0 C -0,5 C 65 % 1027,6 hPa 0,0 l/m 0,0 km/h (0 Bft) W 270 -6,3 C -0,5 C 0,0 km/h (0 Bft)
05.04.2020 02:16 8,3 C -1,8 C -0,4 C 65 % 1027,6 hPa 0,0 l/m 0,0 km/h (0 Bft) W 270 -6,2 C -0,4 C 0,0 km/h (0 Bft)
05.04.2020 02:14 8,3 C -1,8 C -0,4 C 65 % 1027,6 hPa 0,0 l/m 0,0 km/h (0 Bft) W 270 -6,2 C -0,4 C 0,0 km/h (0 Bft)
05.04.2020 02:12 8,3 C -1,5 C -0,4 C 65 % 1027,6 hPa 0,0 l/m 0,0 km/h (0 Bft) W 270 -6,2 C -0,4 C 0,0 km/h (0 Bft)
05.04.2020 02:10 8,3 C -1,7 C -0,4 C 65 % 1027,6 hPa 0,0 l/m 0,0 km/h (0 Bft) W 270 -6,2 C -0,4 C 0,0 km/h (0 Bft)
05.04.2020 02:08 8,3 C -1,8 C -0,3 C 65 % 1027,6 hPa 0,0 l/m 0,0 km/h (0 Bft) W 270 -6,1 C -0,3 C 0,0 km/h (0 Bft)
05.04.2020 02:06 8,3 C -1,8 C -0,4 C 65 % 1027,6 hPa 0,0 l/m 0,0 km/h (0 Bft) W 270 -6,2 C -0,4 C 0,0 km/h (0 Bft)
05.04.2020 02:04 8,3 C -1,8 C -0,4 C 65 % 1027,6 hPa 0,0 l/m 0,0 km/h (0 Bft) W 270 -6,2 C -0,4 C 0,0 km/h (0 Bft)
05.04.2020 02:02 8,3 C -1,8 C -0,4 C 65 % 1027,9 hPa 0,0 l/m 0,0 km/h (0 Bft) W 270 -6,2 C -0,4 C 0,0 km/h (0 Bft)
05.04.2020 02:00 8,3 C -1,7 C -0,3 C 65 % 1027,9 hPa 0,0 l/m 0,0 km/h (0 Bft) W 270 -6,1 C -0,3 C 0,0 km/h (0 Bft)
05.04.2020 01:58 8,3 C -1,8 C -0,3 C 65 % 1027,9 hPa 0,0 l/m 0,0 km/h (0 Bft) W 270 -6,1 C -0,3 C 0,0 km/h (0 Bft)
05.04.2020 01:56 8,4 C -1,8 C -0,3 C 65 % 1027,9 hPa 0,0 l/m 0,0 km/h (0 Bft) W 270 -6,1 C -0,3 C 0,0 km/h (0 Bft)
05.04.2020 01:54 8,4 C -1,8 C -0,1 C 65 % 1027,9 hPa 0,0 l/m 0,0 km/h (0 Bft) W 270 -5,9 C -0,1 C 0,0 km/h (0 Bft)
05.04.2020 01:52 8,4 C -1,6 C -0,1 C 65 % 1027,9 hPa 0,0 l/m 0,0 km/h (0 Bft) W 270 -5,9 C -0,1 C 0,0 km/h (0 Bft)
05.04.2020 01:50 8,4 C -1,5 C -0,1 C 65 % 1027,9 hPa 0,0 l/m 0,0 km/h (0 Bft) W 270 -5,9 C -0,1 C 0,0 km/h (0 Bft)
05.04.2020 01:48 8,4 C -1,2 C -0,1 C 64 % 1027,9 hPa 0,0 l/m 0,0 km/h (0 Bft) W 270 -6,1 C -0,1 C 0,0 km/h (0 Bft)
05.04.2020 01:46 8,4 C -1,0 C -0,1 C 64 % 1027,9 hPa 0,0 l/m 0,0 km/h (0 Bft) W 270 -6,1 C -0,1 C 0,0 km/h (0 Bft)
05.04.2020 01:44 8,4 C -1,0 C 0,0 C 64 % 1027,9 hPa 0,0 l/m 0,0 km/h (0 Bft) W 270 -6,0 C 0,0 C 0,0 km/h (0 Bft)
05.04.2020 01:42 8,4 C -1,5 C 0,0 C 64 % 1027,6 hPa 0,0 l/m 0,0 km/h (0 Bft) W 270 -6,0 C 0,0 C 0,0 km/h (0 Bft)
05.04.2020 01:40 8,4 C -1,3 C 0,0 C 64 % 1027,6 hPa 0,0 l/m 0,0 km/h (0 Bft) W 270 -6,0 C 0,0 C 0,0 km/h (0 Bft)
05.04.2020 01:38 8,4 C -1,5 C 0,0 C 64 % 1027,6 hPa 0,0 l/m 0,0 km/h (0 Bft) W 270 -6,0 C 0,0 C 0,0 km/h (0 Bft)
05.04.2020 01:36 8,4 C -1,3 C 0,1 C 64 % 1027,6 hPa 0,0 l/m 0,0 km/h (0 Bft) W 270 -5,9 C 0,1 C 0,0 km/h (0 Bft)
05.04.2020 01:34 8,4 C -1,3 C 0,1 C 64 % 1027,6 hPa 0,0 l/m 0,0 km/h (0 Bft) W 270 -5,9 C 0,1 C 0,0 km/h (0 Bft)
05.04.2020 01:32 8,5 C -1,3 C 0,2 C 64 % 1027,6 hPa 0,0 l/m 0,0 km/h (0 Bft) W 270 -5,8 C 0,2 C 0,0 km/h (0 Bft)
05.04.2020 01:30 8,5 C -1,1 C 0,2 C 64 % 1027,6 hPa 0,0 l/m 0,0 km/h (0 Bft) W 270 -5,8 C 0,2 C 0,0 km/h (0 Bft)
05.04.2020 01:28 8,5 C -0,7 C 0,1 C 64 % 1027,6 hPa 0,0 l/m 0,0 km/h (0 Bft) W 270 -5,9 C 0,1 C 0,0 km/h (0 Bft)
05.04.2020 01:26 8,5 C -1,0 C 0,1 C 64 % 1027,6 hPa 0,0 l/m 0,0 km/h (0 Bft) W 270 -5,9 C 0,1 C 0,0 km/h (0 Bft)
05.04.2020 01:24 8,5 C -1,2 C 0,1 C 64 % 1027,6 hPa 0,0 l/m 0,0 km/h (0 Bft) W 270 -5,9 C 0,1 C 0,0 km/h (0 Bft)
05.04.2020 01:22 8,5 C -1,2 C 0,1 C 64 % 1027,6 hPa 0,0 l/m 0,0 km/h (0 Bft) W 270 -5,9 C 0,1 C 0,0 km/h (0 Bft)
05.04.2020 01:20 8,5 C -1,1 C 0,1 C 64 % 1027,6 hPa 0,0 l/m 0,0 km/h (0 Bft) W-NW 292 -5,9 C 0,1 C 0,0 km/h (0 Bft)
05.04.2020 01:18 8,5 C -0,8 C 0,1 C 64 % 1027,6 hPa 0,0 l/m 0,0 km/h (0 Bft) W-SW 247 -5,9 C 0,1 C 0,0 km/h (0 Bft)
05.04.2020 01:16 8,5 C -1,0 C 0,1 C 63 % 1027,6 hPa 0,0 l/m 0,0 km/h (0 Bft) W-SW 247 -6,1 C 0,1 C 0,0 km/h (0 Bft)
05.04.2020 01:14 8,5 C -1,1 C 0,1 C 63 % 1027,6 hPa 0,0 l/m 0,0 km/h (0 Bft) S 180 -6,1 C 0,1 C 0,0 km/h (0 Bft)
05.04.2020 01:12 8,5 C -1,1 C 0,1 C 63 % 1027,6 hPa 0,0 l/m 0,0 km/h (0 Bft) S 180 -6,1 C 0,1 C 0,0 km/h (0 Bft)
05.04.2020 01:10 8,5 C -0,7 C 0,2 C 63 % 1027,6 hPa 0,0 l/m 0,0 km/h (0 Bft) S 180 -6,0 C 0,2 C 0,0 km/h (0 Bft)
05.04.2020 01:08 8,6 C -0,7 C 0,2 C 63 % 1027,6 hPa 0,0 l/m 0,0 km/h (0 Bft) S 180 -6,0 C 0,2 C 0,0 km/h (0 Bft)
05.04.2020 01:06 8,6 C -1,0 C 0,2 C 63 % 1027,6 hPa 0,0 l/m 0,0 km/h (0 Bft) S 180 -6,0 C 0,2 C 0,0 km/h (0 Bft)
05.04.2020 01:04 8,6 C -1,3 C 0,1 C 63 % 1027,6 hPa 0,0 l/m 0,0 km/h (0 Bft) S 180 -6,1 C 0,1 C 0,0 km/h (0 Bft)
05.04.2020 01:02 8,6 C -1,3 C 0,2 C 63 % 1027,6 hPa 0,0 l/m 0,0 km/h (0 Bft) S 180 -6,0 C 0,2 C 0,0 km/h (0 Bft)
05.04.2020 01:00 8,6 C -1,2 C 0,2 C 63 % 1027,6 hPa 0,0 l/m 0,0 km/h (0 Bft) S 180 -6,0 C 0,2 C 0,0 km/h (0 Bft)
05.04.2020 00:58 8,6 C -1,2 C 0,2 C 63 % 1027,6 hPa 0,0 l/m 0,0 km/h (0 Bft) S 180 -6,0 C 0,2 C 0,0 km/h (0 Bft)
05.04.2020 00:56 8,6 C -1,1 C 0,2 C 63 % 1027,6 hPa 0,0 l/m 0,0 km/h (0 Bft) S 180 -6,0 C 0,2 C 0,0 km/h (0 Bft)
05.04.2020 00:54 8,6 C -0,7 C 0,3 C 63 % 1027,6 hPa 0,0 l/m 0,0 km/h (0 Bft) S 180 -5,9 C 0,3 C 0,0 km/h (0 Bft)
05.04.2020 00:52 8,6 C -1,2 C 0,3 C 63 % 1027,6 hPa 0,0 l/m 0,0 km/h (0 Bft) S 180 -5,9 C 0,3 C 0,0 km/h (0 Bft)
05.04.2020 00:50 8,6 C -1,1 C 0,3 C 63 % 1027,6 hPa 0,0 l/m 0,0 km/h (0 Bft) S 180 -5,9 C 0,3 C 0,0 km/h (0 Bft)
05.04.2020 00:48 8,6 C -0,8 C 0,3 C 63 % 1027,6 hPa 0,0 l/m 0,0 km/h (0 Bft) S 180 -5,9 C 0,3 C 0,0 km/h (0 Bft)
05.04.2020 00:46 8,6 C -0,8 C 0,4 C 63 % 1027,6 hPa 0,0 l/m 0,0 km/h (0 Bft) S 180 -5,8 C 0,4 C 0,0 km/h (0 Bft)
05.04.2020 00:44 8,7 C -0,8 C 0,4 C 63 % 1027,6 hPa 0,0 l/m 0,0 km/h (0 Bft) S 180 -5,8 C 0,4 C 0,0 km/h (0 Bft)
05.04.2020 00:42 8,7 C -0,8 C 0,4 C 63 % 1027,5 hPa 0,0 l/m 0,0 km/h (0 Bft) S 180 -5,8 C 0,4 C 0,0 km/h (0 Bft)
05.04.2020 00:40 8,7 C -0,8 C 0,4 C 63 % 1027,5 hPa 0,0 l/m 0,0 km/h (0 Bft) S 180 -5,8 C 0,4 C 0,0 km/h (0 Bft)
05.04.2020 00:38 8,7 C -0,8 C 0,6 C 63 % 1027,5 hPa 0,0 l/m 0,0 km/h (0 Bft) S 180 -5,6 C 0,6 C 0,0 km/h (0 Bft)
05.04.2020 00:36 8,7 C -0,4 C 0,6 C 63 % 1027,5 hPa 0,0 l/m 0,0 km/h (0 Bft) S 180 -5,6 C 0,6 C 0,0 km/h (0 Bft)
05.04.2020 00:34 8,7 C -0,8 C 0,6 C 63 % 1027,5 hPa 0,0 l/m 0,0 km/h (0 Bft) S 180 -5,6 C 0,6 C 0,0 km/h (0 Bft)
05.04.2020 00:32 8,7 C -0,7 C 0,6 C 63 % 1027,5 hPa 0,0 l/m 0,0 km/h (0 Bft) S 180 -5,6 C 0,6 C 0,0 km/h (0 Bft)
05.04.2020 00:30 8,7 C -0,8 C 0,6 C 63 % 1027,5 hPa 0,0 l/m 0,0 km/h (0 Bft) S 180 -5,6 C 0,6 C 0,0 km/h (0 Bft)
05.04.2020 00:28 8,7 C -0,7 C 0,7 C 63 % 1027,5 hPa 0,0 l/m 0,0 km/h (0 Bft) S 180 -5,5 C 0,7 C 0,0 km/h (0 Bft)
05.04.2020 00:26 8,7 C -1,0 C 0,7 C 63 % 1027,5 hPa 0,0 l/m 0,0 km/h (0 Bft) S 180 -5,5 C 0,7 C 0,0 km/h (0 Bft)
05.04.2020 00:24 8,7 C -0,7 C 0,7 C 63 % 1027,5 hPa 0,0 l/m 0,0 km/h (0 Bft) S 180 -5,5 C 0,7 C 0,0 km/h (0 Bft)
05.04.2020 00:22 8,8 C -0,7 C 0,7 C 63 % 1027,4 hPa 0,0 l/m 0,0 km/h (0 Bft) S 180 -5,5 C 0,7 C 0,0 km/h (0 Bft)
05.04.2020 00:20 8,8 C -0,5 C 0,7 C 62 % 1027,4 hPa 0,0 l/m 0,0 km/h (0 Bft) S 180 -5,7 C 0,7 C 0,0 km/h (0 Bft)
05.04.2020 00:18 8,8 C -0,6 C 0,8 C 62 % 1027,4 hPa 0,0 l/m 0,0 km/h (0 Bft) S 180 -5,6 C 0,8 C 0,0 km/h (0 Bft)
05.04.2020 00:16 8,8 C -0,6 C 0,8 C 62 % 1027,4 hPa 0,0 l/m 0,0 km/h (0 Bft) S 180 -5,6 C 0,8 C 0,0 km/h (0 Bft)
05.04.2020 00:14 8,8 C -0,5 C 0,8 C 62 % 1027,4 hPa 0,0 l/m 0,0 km/h (0 Bft) S 180 -5,6 C 0,8 C 0,0 km/h (0 Bft)
05.04.2020 00:12 8,8 C -0,1 C 0,9 C 62 % 1027,4 hPa 0,0 l/m 0,0 km/h (0 Bft) S 180 -5,5 C 0,9 C 0,0 km/h (0 Bft)
05.04.2020 00:10 8,9 C -0,6 C 1,1 C 62 % 1027,4 hPa 0,0 l/m 0,0 km/h (0 Bft) S 180 -5,3 C 1,1 C 0,0 km/h (0 Bft)
05.04.2020 00:08 8,9 C -0,6 C 1,1 C 62 % 1027,4 hPa 0,0 l/m 0,0 km/h (0 Bft) S 180 -5,3 C 1,1 C 0,0 km/h (0 Bft)
05.04.2020 00:06 8,9 C -0,6 C 1,1 C 62 % 1027,4 hPa 0,0 l/m 0,0 km/h (0 Bft) S 180 -5,3 C 1,1 C 0,0 km/h (0 Bft)
05.04.2020 00:04 8,9 C -0,6 C 1,1 C 62 % 1027,4 hPa 0,0 l/m 0,0 km/h (0 Bft) S 180 -5,3 C 1,1 C 0,0 km/h (0 Bft)
05.04.2020 00:02 8,9 C -0,6 C 1,1 C 62 % 1027,4 hPa 0,0 l/m 0,0 km/h (0 Bft) S 180 -5,3 C 1,1 C 0,0 km/h (0 Bft)
05.04.2020 00:00 8,9 C -0,5 C 1,1 C 62 % 1027,4 hPa 0,0 l/m 0,0 km/h (0 Bft) S 180 -5,3 C 1,1 C 0,0 km/h (0 Bft)
_ Min-Zeit 09:36 05:30 06:52 15:02 15:24 - 00:00 - - 06:52 06:52 00:00
Minimum _ 6,7 C -3,5 C -2,7 C 34 % 1026,4 hPa - 0,0 km/h (0 Bft) - - -7,4 C -2,7 C 0,0 km/h (0 Bft)
_ Max-Zeit 15:38 15:06 15:32 08:48 10:44 00:00 13:12 - - 12:44 15:32 15:06
Maximum _ 9,8 C 22,5 C 19,3 C 76 % 1030,2 hPa 0,0 l/m 13,0 km/h
NO (3 Bft)
- - 4,4 C 19,3 C 25,8 km/h
O (4 Bft)
Durchschnitt _ 7,7 C 5,1 C 5,6 C 59 % 1028,1 hPa #0,0 l/m 3,3 km/h (1 Bft) O-NO - -2,3 C 5,6 C 4,6 km/h (1 Bft)